Wetterdaten: Dienstag, 21.10.2014
Datum Zeit Temp. Aussen +5cm Feuchte Auss Luftdruck Regen Sonnenschein Regendauer Solar Windben
21.10.2014 00:00 12,2 C 10,6 C 95 % 1013,6 hPa 0,0 l/m 0 min 0 min 0 W/m 16,7 km/h (3 Bft)
21.10.2014 00:02 12,2 C 10,6 C 95 % 1013,6 hPa 0,0 l/m 0 min 0 min 0 W/m 20,9 km/h (4 Bft)
21.10.2014 00:05 12,2 C 10,6 C 95 % 1013,6 hPa 0,0 l/m 0 min 0 min 0 W/m 23,0 km/h (4 Bft)
21.10.2014 00:06 12,2 C 10,6 C 95 % 1013,6 hPa 0,0 l/m 0 min 0 min 0 W/m 12,6 km/h (3 Bft)
21.10.2014 00:08 12,2 C 10,6 C 95 % 1013,5 hPa 0,0 l/m 0 min 0 min 0 W/m 12,6 km/h (3 Bft)
21.10.2014 00:10 12,2 C 10,6 C 95 % 1013,5 hPa 0,0 l/m 0 min 0 min 0 W/m 16,7 km/h (3 Bft)
21.10.2014 00:12 12,1 C 10,6 C 95 % 1013,5 hPa 0,0 l/m 0 min 0 min 0 W/m 12,6 km/h (3 Bft)
21.10.2014 00:14 12,1 C 10,6 C 95 % 1013,4 hPa 0,0 l/m 0 min 0 min 0 W/m 18,8 km/h (3 Bft)
21.10.2014 00:16 12,1 C 10,6 C 95 % 1013,4 hPa 0,0 l/m 0 min 0 min 0 W/m 14,6 km/h (3 Bft)
21.10.2014 00:18 12,1 C 10,6 C 95 % 1013,4 hPa 0,0 l/m 0 min 0 min 0 W/m 14,6 km/h (3 Bft)
21.10.2014 00:20 12,1 C 10,6 C 95 % 1013,3 hPa 0,0 l/m 0 min 0 min 0 W/m 18,8 km/h (3 Bft)
21.10.2014 00:22 12,1 C 10,6 C 95 % 1013,4 hPa 0,0 l/m 0 min 0 min 0 W/m 20,9 km/h (4 Bft)
21.10.2014 00:24 12,0 C 10,6 C 95 % 1013,3 hPa 0,0 l/m 0 min 0 min 0 W/m 12,6 km/h (3 Bft)
21.10.2014 00:26 12,0 C 10,6 C 95 % 1013,4 hPa 0,0 l/m 0 min 0 min 0 W/m 12,6 km/h (3 Bft)
21.10.2014 00:28 12,0 C 10,6 C 95 % 1013,4 hPa 0,0 l/m 0 min 0 min 0 W/m 12,6 km/h (3 Bft)
21.10.2014 00:30 12,0 C 10,6 C 95 % 1013,3 hPa 0,0 l/m 0 min 0 min 0 W/m 12,6 km/h (3 Bft)
21.10.2014 00:32 11,9 C 10,6 C 95 % 1013,3 hPa 0,0 l/m 0 min 0 min 0 W/m 16,7 km/h (3 Bft)
21.10.2014 00:34 11,9 C 10,6 C 95 % 1013,4 hPa 0,0 l/m 0 min 0 min 0 W/m 16,7 km/h (3 Bft)
21.10.2014 00:36 11,9 C 10,6 C 95 % 1013,3 hPa 0,0 l/m 0 min 0 min 0 W/m 18,8 km/h (3 Bft)
21.10.2014 00:38 11,9 C 10,6 C 95 % 1013,3 hPa 0,0 l/m 0 min 0 min 0 W/m 14,6 km/h (3 Bft)
21.10.2014 00:40 11,9 C 10,0 C 95 % 1013,2 hPa 0,0 l/m 0 min 0 min 0 W/m 16,7 km/h (3 Bft)
21.10.2014 00:42 11,9 C 10,0 C 95 % 1013,2 hPa 0,0 l/m 0 min 0 min 0 W/m 14,6 km/h (3 Bft)
21.10.2014 00:44 11,9 C 10,0 C 95 % 1013,2 hPa 0,0 l/m 0 min 0 min 0 W/m 12,6 km/h (3 Bft)
21.10.2014 00:46 11,9 C 10,0 C 95 % 1013,2 hPa 0,0 l/m 0 min 0 min 0 W/m 16,7 km/h (3 Bft)
21.10.2014 00:48 11,8 C 10,6 C 95 % 1013,2 hPa 0,0 l/m 0 min 0 min 0 W/m 18,8 km/h (3 Bft)
21.10.2014 00:50 11,8 C 10,6 C 95 % 1013,3 hPa 0,0 l/m 0 min 0 min 0 W/m 18,8 km/h (3 Bft)
21.10.2014 00:52 11,8 C 10,6 C 95 % 1013,2 hPa 0,0 l/m 0 min 0 min 0 W/m 14,6 km/h (3 Bft)
21.10.2014 00:54 11,8 C 10,0 C 95 % 1013,3 hPa 0,0 l/m 0 min 0 min 0 W/m 14,6 km/h (3 Bft)
21.10.2014 00:56 11,8 C 10,0 C 95 % 1013,2 hPa 0,0 l/m 0 min 0 min 0 W/m 14,6 km/h (3 Bft)
21.10.2014 00:58 11,8 C 10,0 C 95 % 1013,2 hPa 0,0 l/m 0 min 0 min 0 W/m 10,5 km/h (2 Bft)
21.10.2014 01:00 11,8 C 10,0 C 95 % 1013,2 hPa 0,0 l/m 0 min 0 min 0 W/m 18,8 km/h (3 Bft)
21.10.2014 01:02 11,8 C 10,0 C 95 % 1013,3 hPa 0,0 l/m 0 min 0 min 0 W/m 18,8 km/h (3 Bft)
21.10.2014 01:04 11,7 C 10,0 C 95 % 1013,1 hPa 0,0 l/m 0 min 0 min 0 W/m 18,8 km/h (3 Bft)
21.10.2014 01:06 11,7 C 10,0 C 95 % 1013,1 hPa 0,0 l/m 0 min 0 min 0 W/m 16,7 km/h (3 Bft)
21.10.2014 01:08 11,7 C 10,0 C 95 % 1013,1 hPa 0,0 l/m 0 min 0 min 0 W/m 14,6 km/h (3 Bft)
21.10.2014 01:10 11,7 C 10,0 C 95 % 1013,1 hPa 0,0 l/m 0 min 0 min 0 W/m 20,9 km/h (4 Bft)
21.10.2014 01:12 11,7 C 10,0 C 95 % 1013,0 hPa 0,0 l/m 0 min 0 min 0 W/m 16,7 km/h (3 Bft)
21.10.2014 01:14 11,7 C 10,0 C 95 % 1013,1 hPa 0,0 l/m 0 min 0 min 0 W/m 14,6 km/h (3 Bft)
21.10.2014 01:16 11,7 C 10,0 C 95 % 1013,0 hPa 0,0 l/m 0 min 0 min 0 W/m 12,6 km/h (3 Bft)
21.10.2014 01:18 11,7 C 10,0 C 95 % 1013,0 hPa 0,0 l/m 0 min 0 min 0 W/m 10,5 km/h (2 Bft)
21.10.2014 01:20 11,7 C 10,0 C 95 % 1013,0 hPa 0,0 l/m 0 min 0 min 0 W/m 12,6 km/h (3 Bft)
21.10.2014 01:22 11,7 C 10,0 C 95 % 1013,0 hPa 0,0 l/m 0 min 0 min 0 W/m 14,6 km/h (3 Bft)
21.10.2014 01:24 11,7 C 10,0 C 95 % 1013,1 hPa 0,0 l/m 0 min 0 min 0 W/m 14,6 km/h (3 Bft)
21.10.2014 01:26 11,6 C 10,0 C 95 % 1013,0 hPa 0,0 l/m 0 min 0 min 0 W/m 14,6 km/h (3 Bft)
21.10.2014 01:28 11,6 C 10,0 C 95 % 1013,1 hPa 0,0 l/m 0 min 0 min 0 W/m 10,5 km/h (2 Bft)
21.10.2014 01:30 11,6 C 10,0 C 95 % 1013,0 hPa 0,0 l/m 0 min 0 min 0 W/m 12,6 km/h (3 Bft)
21.10.2014 01:32 11,6 C 10,0 C 95 % 1013,0 hPa 0,0 l/m 0 min 0 min 0 W/m 18,8 km/h (3 Bft)
21.10.2014 01:34 11,6 C 10,0 C 95 % 1013,0 hPa 0,0 l/m 0 min 0 min 0 W/m 12,6 km/h (3 Bft)
21.10.2014 01:36 11,6 C 10,0 C 95 % 1013,0 hPa 0,0 l/m 0 min 0 min 0 W/m 14,6 km/h (3 Bft)
21.10.2014 01:38 11,6 C 10,0 C 95 % 1013,0 hPa 0,0 l/m 0 min 0 min 0 W/m 14,6 km/h (3 Bft)
21.10.2014 01:40 11,6 C 10,0 C 95 % 1013,0 hPa 0,0 l/m 0 min 0 min 0 W/m 18,8 km/h (3 Bft)
21.10.2014 01:42 11,5 C 10,0 C 95 % 1013,0 hPa 0,0 l/m 0 min 0 min 0 W/m 16,7 km/h (3 Bft)
21.10.2014 01:44 11,5 C 10,0 C 95 % 1013,0 hPa 0,0 l/m 0 min 0 min 0 W/m 18,8 km/h (3 Bft)
21.10.2014 01:46 11,5 C 10,0 C 95 % 1013,0 hPa 0,0 l/m 0 min 0 min 0 W/m 14,6 km/h (3 Bft)
21.10.2014 01:48 11,5 C 10,0 C 95 % 1012,9 hPa 0,0 l/m 0 min 0 min 0 W/m 14,6 km/h (3 Bft)
21.10.2014 01:50 11,5 C 10,0 C 95 % 1012,9 hPa 0,0 l/m 0 min 0 min 0 W/m 14,6 km/h (3 Bft)
21.10.2014 01:52 11,5 C 10,0 C 95 % 1013,0 hPa 0,0 l/m 0 min 0 min 0 W/m 14,6 km/h (3 Bft)
21.10.2014 01:54 11,5 C 10,0 C 95 % 1013,0 hPa 0,0 l/m 0 min 0 min 0 W/m 14,6 km/h (3 Bft)
21.10.2014 01:56 11,5 C 10,0 C 95 % 1013,0 hPa 0,0 l/m 0 min 0 min 0 W/m 12,6 km/h (3 Bft)
21.10.2014 01:58 11,5 C 10,0 C 95 % 1012,9 hPa 0,0 l/m 0 min 0 min 0 W/m 16,7 km/h (3 Bft)
21.10.2014 02:00 11,5 C 10,0 C 95 % 1012,8 hPa 0,0 l/m 0 min 0 min 0 W/m 14,6 km/h (3 Bft)
21.10.2014 02:02 11,4 C 10,0 C 95 % 1012,8 hPa 0,0 l/m 0 min 0 min 0 W/m 14,6 km/h (3 Bft)
21.10.2014 02:04 11,4 C 10,0 C 95 % 1012,9 hPa 0,0 l/m 0 min 0 min 0 W/m 18,8 km/h (3 Bft)
21.10.2014 02:06 11,4 C 10,0 C 95 % 1012,8 hPa 0,0 l/m 0 min 0 min 0 W/m 14,6 km/h (3 Bft)
21.10.2014 02:08 11,4 C 10,0 C 95 % 1012,8 hPa 0,0 l/m 0 min 0 min 0 W/m 14,6 km/h (3 Bft)
21.10.2014 02:10 11,4 C 10,0 C 95 % 1012,9 hPa 0,0 l/m 0 min 0 min 0 W/m 18,8 km/h (3 Bft)
21.10.2014 02:12 11,4 C 10,0 C 95 % 1012,8 hPa 0,0 l/m 0 min 0 min 0 W/m 14,6 km/h (3 Bft)
21.10.2014 02:14 11,4 C 10,0 C 95 % 1012,8 hPa 0,0 l/m 0 min 0 min 0 W/m 14,6 km/h (3 Bft)
21.10.2014 02:16 11,4 C 10,0 C 95 % 1012,7 hPa 0,0 l/m 0 min 0 min 0 W/m 18,8 km/h (3 Bft)
21.10.2014 02:18 11,4 C 10,0 C 95 % 1012,8 hPa 0,0 l/m 0 min 0 min 0 W/m 14,6 km/h (3 Bft)
21.10.2014 02:20 11,4 C 10,0 C 95 % 1012,6 hPa 0,0 l/m 0 min 0 min 0 W/m 14,6 km/h (3 Bft)
21.10.2014 02:22 11,4 C 10,0 C 95 % 1012,7 hPa 0,0 l/m 0 min 0 min 0 W/m 18,8 km/h (3 Bft)
21.10.2014 02:24 11,4 C 10,0 C 95 % 1012,6 hPa 0,0 l/m 0 min 0 min 0 W/m 16,7 km/h (3 Bft)
21.10.2014 02:26 11,4 C 10,0 C 95 % 1012,6 hPa 0,0 l/m 0 min 0 min 0 W/m 16,7 km/h (3 Bft)
21.10.2014 02:28 11,4 C 10,0 C 95 % 1012,7 hPa 0,0 l/m 0 min 0 min 0 W/m 12,6 km/h (3 Bft)
21.10.2014 02:30 11,4 C 10,0 C 95 % 1012,7 hPa 0,0 l/m 0 min 0 min 0 W/m 14,6 km/h (3 Bft)
21.10.2014 02:32 11,4 C 10,0 C 95 % 1012,6 hPa 0,0 l/m 0 min 0 min 0 W/m 16,7 km/h (3 Bft)
21.10.2014 02:34 11,4 C 10,0 C 95 % 1012,6 hPa 0,0 l/m 0 min 0 min 0 W/m 16,7 km/h (3 Bft)
21.10.2014 02:36 11,4 C 10,0 C 95 % 1012,6 hPa 0,0 l/m 0 min 0 min 0 W/m 16,7 km/h (3 Bft)
21.10.2014 02:38 11,4 C 10,0 C 95 % 1012,5 hPa 0,0 l/m 0 min 0 min 0 W/m 16,7 km/h (3 Bft)
21.10.2014 02:40 11,4 C 10,0 C 95 % 1012,5 hPa 0,0 l/m 0 min 0 min 0 W/m 16,7 km/h (3 Bft)
21.10.2014 02:42 11,4 C 10,0 C 95 % 1012,6 hPa 0,0 l/m 0 min 0 min 0 W/m 10,5 km/h (2 Bft)
21.10.2014 02:44 11,3 C 10,0 C 95 % 1012,6 hPa 0,0 l/m 0 min 0 min 0 W/m 10,5 km/h (2 Bft)
21.10.2014 02:46 11,3 C 10,0 C 95 % 1012,6 hPa 0,0 l/m 0 min 0 min 0 W/m 18,8 km/h (3 Bft)
21.10.2014 02:48 11,3 C 10,0 C 95 % 1012,5 hPa 0,0 l/m 0 min 0 min 0 W/m 14,6 km/h (3 Bft)
21.10.2014 02:50 11,3 C 10,0 C 95 % 1012,5 hPa 0,0 l/m 0 min 0 min 0 W/m 12,6 km/h (3 Bft)
21.10.2014 02:52 11,3 C 10,0 C 95 % 1012,5 hPa 0,0 l/m 0 min 0 min 0 W/m 16,7 km/h (3 Bft)
21.10.2014 02:54 11,3 C 10,0 C 95 % 1012,4 hPa 0,0 l/m 0 min 0 min 0 W/m 14,6 km/h (3 Bft)
21.10.2014 02:56 11,3 C 10,0 C 95 % 1012,4 hPa 0,0 l/m 0 min 0 min 0 W/m 20,9 km/h (4 Bft)
21.10.2014 02:58 11,3 C 10,0 C 95 % 1012,4 hPa 0,0 l/m 0 min 0 min 0 W/m 12,6 km/h (3 Bft)
21.10.2014 03:00 11,3 C 10,0 C 95 % 1012,3 hPa 0,0 l/m 0 min 0 min 0 W/m 20,9 km/h (4 Bft)
21.10.2014 03:02 11,3 C 10,0 C 95 % 1012,4 hPa 0,0 l/m 0 min 0 min 0 W/m 14,6 km/h (3 Bft)
21.10.2014 03:04 11,3 C 10,0 C 95 % 1012,3 hPa 0,0 l/m 0 min 0 min 0 W/m 14,6 km/h (3 Bft)
21.10.2014 03:06 11,3 C 10,0 C 95 % 1012,3 hPa 0,0 l/m 0 min 0 min 0 W/m 14,6 km/h (3 Bft)
21.10.2014 03:08 11,3 C 10,0 C 95 % 1012,3 hPa 0,0 l/m 0 min 0 min 0 W/m 18,8 km/h (3 Bft)
21.10.2014 03:10 11,3 C 10,0 C 95 % 1012,2 hPa 0,0 l/m 0 min 0 min 0 W/m 12,6 km/h (3 Bft)
21.10.2014 03:12 11,3 C 10,0 C 95 % 1012,2 hPa 0,0 l/m 0 min 0 min 0 W/m 16,7 km/h (3 Bft)
21.10.2014 03:14 11,2 C 10,0 C 95 % 1012,2 hPa 0,0 l/m 0 min 0 min 0 W/m 16,7 km/h (3 Bft)
21.10.2014 03:16 11,2 C 10,0 C 95 % 1012,2 hPa 0,0 l/m 0 min 0 min 0 W/m 18,8 km/h (3 Bft)
21.10.2014 03:18 11,2 C 10,0 C 95 % 1012,2 hPa 0,0 l/m 0 min 0 min 0 W/m 16,7 km/h (3 Bft)
21.10.2014 03:20 11,2 C 10,0 C 95 % 1012,2 hPa 0,0 l/m 0 min 0 min 0 W/m 12,6 km/h (3 Bft)
21.10.2014 03:22 11,2 C 10,0 C 95 % 1012,2 hPa 0,0 l/m 0 min 0 min 0 W/m 12,6 km/h (3 Bft)
21.10.2014 03:24 11,2 C 10,0 C 95 % 1012,1 hPa 0,0 l/m 0 min 0 min 0 W/m 16,7 km/h (3 Bft)
21.10.2014 03:26 11,2 C 10,0 C 95 % 1012,2 hPa 0,0 l/m 0 min 0 min 0 W/m 14,6 km/h (3 Bft)
21.10.2014 03:28 11,2 C 10,0 C 95 % 1012,1 hPa 0,0 l/m 0 min 0 min 0 W/m 16,7 km/h (3 Bft)
21.10.2014 03:30 11,2 C 10,0 C 95 % 1012,1 hPa 0,0 l/m 0 min 0 min 0 W/m 16,7 km/h (3 Bft)
21.10.2014 03:32 11,2 C 10,0 C 95 % 1012,1 hPa 0,0 l/m 0 min 0 min 0 W/m 16,7 km/h (3 Bft)
21.10.2014 03:34 11,2 C 10,0 C 95 % 1012,1 hPa 0,0 l/m 0 min 0 min 0 W/m 16,7 km/h (3 Bft)
21.10.2014 03:36 11,2 C 10,0 C 95 % 1012,0 hPa 0,0 l/m 0 min 0 min 0 W/m 16,7 km/h (3 Bft)
21.10.2014 03:38 11,2 C 10,0 C 95 % 1012,1 hPa 0,0 l/m 0 min 0 min 0 W/m 14,6 km/h (3 Bft)
21.10.2014 03:40 11,2 C 10,0 C 95 % 1012,0 hPa 0,0 l/m 0 min 0 min 0 W/m 16,7 km/h (3 Bft)
21.10.2014 03:42 11,2 C 10,0 C 95 % 1012,0 hPa 0,0 l/m 0 min 0 min 0 W/m 18,8 km/h (3 Bft)
21.10.2014 03:44 11,2 C 10,0 C 95 % 1012,0 hPa 0,0 l/m 0 min 0 min 0 W/m 23,0 km/h (4 Bft)
21.10.2014 03:46 11,2 C 10,0 C 95 % 1011,9 hPa 0,0 l/m 0 min 0 min 0 W/m 23,0 km/h (4 Bft)
21.10.2014 03:48 11,2 C 10,0 C 95 % 1012,0 hPa 0,0 l/m 0 min 0 min 0 W/m 20,9 km/h (4 Bft)
21.10.2014 03:50 11,2 C 10,0 C 95 % 1011,9 hPa 0,0 l/m 0 min 0 min 0 W/m 14,6 km/h (3 Bft)
21.10.2014 03:52 11,2 C 10,0 C 95 % 1011,9 hPa 0,0 l/m 0 min 0 min 0 W/m 14,6 km/h (3 Bft)
21.10.2014 03:54 11,2 C 10,0 C 95 % 1011,8 hPa 0,0 l/m 0 min 0 min 0 W/m 14,6 km/h (3 Bft)
21.10.2014 03:56 11,2 C 10,0 C 95 % 1011,8 hPa 0,0 l/m 0 min 0 min 0 W/m 14,6 km/h (3 Bft)
21.10.2014 03:58 11,2 C 10,0 C 95 % 1011,7 hPa 0,0 l/m 0 min 0 min 0 W/m 16,7 km/h (3 Bft)
21.10.2014 04:00 11,2 C 10,0 C 95 % 1011,7 hPa 0,0 l/m 0 min 0 min 0 W/m 14,6 km/h (3 Bft)
21.10.2014 04:02 11,2 C 10,0 C 95 % 1011,7 hPa 0,0 l/m 0 min 0 min 0 W/m 18,8 km/h (3 Bft)
21.10.2014 04:04 11,2 C 10,0 C 95 % 1011,7 hPa 0,0 l/m 0 min 0 min 0 W/m 12,6 km/h (3 Bft)
21.10.2014 04:06 11,2 C 10,0 C 95 % 1011,7 hPa 0,0 l/m 0 min 0 min 0 W/m 14,6 km/h (3 Bft)
21.10.2014 04:08 11,2 C 10,0 C 95 % 1011,6 hPa 0,0 l/m 0 min 0 min 0 W/m 14,6 km/h (3 Bft)
21.10.2014 04:10 11,2 C 10,0 C 95 % 1011,6 hPa 0,0 l/m 0 min 0 min 0 W/m 10,5 km/h (2 Bft)
21.10.2014 04:12 11,2 C 10,0 C 95 % 1011,6 hPa 0,0 l/m 0 min 0 min 0 W/m 12,6 km/h (3 Bft)
21.10.2014 04:14 11,2 C 10,0 C 95 % 1011,6 hPa 0,0 l/m 0 min 0 min 0 W/m 16,7 km/h (3 Bft)
21.10.2014 04:16 11,2 C 10,0 C 95 % 1011,5 hPa 0,0 l/m 0 min 0 min 0 W/m 16,7 km/h (3 Bft)
21.10.2014 04:18 11,2 C 10,0 C 95 % 1011,5 hPa 0,0 l/m 0 min 0 min 0 W/m 10,5 km/h (2 Bft)
21.10.2014 04:20 11,2 C 10,0 C 95 % 1011,5 hPa 0,0 l/m 0 min 0 min 0 W/m 12,6 km/h (3 Bft)
21.10.2014 04:22 11,2 C 10,0 C 95 % 1011,4 hPa 0,0 l/m 0 min 0 min 0 W/m 16,7 km/h (3 Bft)
21.10.2014 04:24 11,2 C 10,0 C 95 % 1011,4 hPa 0,0 l/m 0 min 0 min 0 W/m 16,7 km/h (3 Bft)
21.10.2014 04:26 11,2 C 10,0 C 95 % 1011,3 hPa 0,0 l/m 0 min 0 min 0 W/m 12,6 km/h (3 Bft)
21.10.2014 04:28 11,2 C 10,0 C 95 % 1011,2 hPa 0,0 l/m 0 min 0 min 0 W/m 12,6 km/h (3 Bft)
21.10.2014 04:30 11,2 C 10,0 C 95 % 1011,2 hPa 0,0 l/m 0 min 0 min 0 W/m 12,6 km/h (3 Bft)
21.10.2014 04:32 11,2 C 10,0 C 95 % 1011,1 hPa 0,0 l/m 0 min 0 min 0 W/m 10,5 km/h (2 Bft)
21.10.2014 04:34 11,2 C 10,0 C 95 % 1011,1 hPa 0,0 l/m 0 min 0 min 0 W/m 10,5 km/h (2 Bft)
21.10.2014 04:36 11,2 C 10,0 C 95 % 1011,1 hPa 0,0 l/m 0 min 0 min 0 W/m 12,6 km/h (3 Bft)
21.10.2014 04:38 11,2 C 10,0 C 95 % 1011,0 hPa 0,0 l/m 0 min 0 min 0 W/m 14,6 km/h (3 Bft)
21.10.2014 04:40 11,2 C 10,0 C 95 % 1011,1 hPa 0,0 l/m 0 min 0 min 0 W/m 14,6 km/h (3 Bft)
21.10.2014 04:42 11,2 C 10,0 C 95 % 1011,0 hPa 0,0 l/m 0 min 2 min 0 W/m 12,6 km/h (3 Bft)
21.10.2014 04:44 11,2 C 10,0 C 95 % 1011,0 hPa 0,2 l/m 0 min 2 min 0 W/m 18,8 km/h (3 Bft)
21.10.2014 04:46 11,2 C 10,0 C 95 % 1011,0 hPa 0,0 l/m 0 min 2 min 0 W/m 18,8 km/h (3 Bft)
21.10.2014 04:48 11,2 C 10,0 C 95 % 1010,9 hPa 0,0 l/m 0 min 0 min 0 W/m 12,6 km/h (3 Bft)
21.10.2014 04:50 11,2 C 10,0 C 95 % 1010,9 hPa 0,0 l/m 0 min 0 min 0 W/m 12,6 km/h (3 Bft)
21.10.2014 04:52 11,2 C 10,0 C 95 % 1010,9 hPa 0,0 l/m 0 min 0 min 0 W/m 14,6 km/h (3 Bft)
21.10.2014 04:54 11,2 C 10,0 C 95 % 1010,9 hPa 0,0 l/m 0 min 0 min 0 W/m 14,6 km/h (3 Bft)
21.10.2014 04:56 11,2 C 10,0 C 95 % 1010,8 hPa 0,0 l/m 0 min 0 min 0 W/m 12,6 km/h (3 Bft)
21.10.2014 04:58 11,2 C 10,0 C 95 % 1010,8 hPa 0,0 l/m 0 min 0 min 0 W/m 12,6 km/h (3 Bft)
21.10.2014 05:00 11,1 C 10,0 C 95 % 1010,8 hPa 0,0 l/m 0 min 0 min 0 W/m 18,8 km/h (3 Bft)
21.10.2014 05:02 11,2 C 10,0 C 95 % 1010,7 hPa 0,0 l/m 0 min 0 min 0 W/m 20,9 km/h (4 Bft)
21.10.2014 05:04 11,1 C 10,0 C 95 % 1010,8 hPa 0,0 l/m 0 min 0 min 0 W/m 12,6 km/h (3 Bft)
21.10.2014 05:06 11,1 C 10,0 C 95 % 1010,8 hPa 0,0 l/m 0 min 0 min 0 W/m 10,5 km/h (2 Bft)
21.10.2014 05:08 11,2 C 10,0 C 95 % 1010,7 hPa 0,0 l/m 0 min 0 min 0 W/m 10,5 km/h (2 Bft)
21.10.2014 05:10 11,2 C 10,0 C 95 % 1010,5 hPa 0,0 l/m 0 min 0 min 0 W/m 16,7 km/h (3 Bft)
21.10.2014 05:12 11,2 C 10,0 C 95 % 1010,5 hPa 0,0 l/m 0 min 0 min 0 W/m 10,5 km/h (2 Bft)
21.10.2014 05:14 11,2 C 10,0 C 95 % 1010,4 hPa 0,0 l/m 0 min 0 min 0 W/m 18,8 km/h (3 Bft)
21.10.2014 05:16 11,2 C 10,0 C 95 % 1010,3 hPa 0,0 l/m 0 min 0 min 0 W/m 18,8 km/h (3 Bft)
21.10.2014 05:18 11,2 C 10,0 C 95 % 1010,3 hPa 0,0 l/m 0 min 0 min 0 W/m 12,6 km/h (3 Bft)
21.10.2014 05:20 11,2 C 10,6 C 95 % 1010,4 hPa 0,0 l/m 0 min 0 min 0 W/m 14,6 km/h (3 Bft)
21.10.2014 05:22 11,2 C 10,6 C 95 % 1010,3 hPa 0,0 l/m 0 min 0 min 0 W/m 12,6 km/h (3 Bft)
21.10.2014 05:24 11,2 C 10,0 C 95 % 1010,3 hPa 0,0 l/m 0 min 0 min 0 W/m 10,5 km/h (2 Bft)
21.10.2014 05:26 11,3 C 10,0 C 95 % 1010,2 hPa 0,0 l/m 0 min 0 min 0 W/m 14,6 km/h (3 Bft)
21.10.2014 05:28 11,3 C 10,6 C 95 % 1010,2 hPa 0,0 l/m 0 min 0 min 0 W/m 23,0 km/h (4 Bft)
21.10.2014 05:30 11,3 C 10,6 C 95 % 1010,2 hPa 0,0 l/m 0 min 0 min 0 W/m 16,7 km/h (3 Bft)
21.10.2014 05:32 11,3 C 10,6 C 95 % 1010,2 hPa 0,0 l/m 0 min 0 min 0 W/m 18,8 km/h (3 Bft)
21.10.2014 05:34 11,3 C 10,6 C 95 % 1010,2 hPa 0,0 l/m 0 min 0 min 0 W/m 18,8 km/h (3 Bft)
21.10.2014 05:36 11,3 C 10,6 C 95 % 1010,1 hPa 0,0 l/m 0 min 0 min 0 W/m 18,8 km/h (3 Bft)
21.10.2014 05:38 11,4 C 10,6 C 95 % 1010,1 hPa 0,0 l/m 0 min 0 min 0 W/m 20,9 km/h (4 Bft)
21.10.2014 05:40 11,4 C 10,6 C 95 % 1010,0 hPa 0,0 l/m 0 min 0 min 0 W/m 20,9 km/h (4 Bft)
21.10.2014 05:42 11,4 C 10,6 C 95 % 1010,0 hPa 0,0 l/m 0 min 0 min 0 W/m 16,7 km/h (3 Bft)
21.10.2014 05:44 11,4 C 10,6 C 95 % 1010,0 hPa 0,0 l/m 0 min 0 min 0 W/m 18,8 km/h (3 Bft)
21.10.2014 05:46 11,4 C 10,6 C 95 % 1010,0 hPa 0,0 l/m 0 min 0 min 0 W/m 12,6 km/h (3 Bft)
21.10.2014 05:48 11,4 C 10,6 C 95 % 1010,0 hPa 0,0 l/m 0 min 0 min 0 W/m 12,6 km/h (3 Bft)
21.10.2014 05:50 11,5 C 10,6 C 95 % 1009,9 hPa 0,0 l/m 0 min 0 min 0 W/m 14,6 km/h (3 Bft)
21.10.2014 05:52 11,5 C 10,6 C 95 % 1009,9 hPa 0,0 l/m 0 min 0 min 0 W/m 27,2 km/h (4 Bft)
21.10.2014 05:54 11,5 C 10,6 C 95 % 1009,9 hPa 0,0 l/m 0 min 0 min 0 W/m 16,7 km/h (3 Bft)
21.10.2014 05:56 11,5 C 10,6 C 95 % 1009,9 hPa 0,0 l/m 0 min 0 min 0 W/m 16,7 km/h (3 Bft)
21.10.2014 05:58 11,5 C 10,6 C 95 % 1009,8 hPa 0,0 l/m 0 min 0 min 0 W/m 16,7 km/h (3 Bft)
21.10.2014 06:00 11,6 C 10,6 C 96 % 1009,8 hPa 0,0 l/m 0 min 0 min 0 W/m 18,8 km/h (3 Bft)
21.10.2014 06:02 11,6 C 10,6 C 96 % 1009,7 hPa 0,0 l/m 0 min 0 min 0 W/m 25,1 km/h (4 Bft)
21.10.2014 06:05 11,6 C 10,6 C 96 % 1009,8 hPa 0,0 l/m 0 min 0 min 0 W/m 23,0 km/h (4 Bft)
21.10.2014 06:06 11,6 C 10,6 C 95 % 1009,8 hPa 0,0 l/m 0 min 0 min 0 W/m 16,7 km/h (3 Bft)
21.10.2014 06:08 11,6 C 10,6 C 95 % 1009,8 hPa 0,0 l/m 0 min 0 min 0 W/m 18,8 km/h (3 Bft)
21.10.2014 06:10 11,6 C 10,6 C 95 % 1009,7 hPa 0,0 l/m 0 min 0 min 0 W/m 18,8 km/h (3 Bft)
21.10.2014 06:12 11,6 C 10,6 C 95 % 1009,6 hPa 0,0 l/m 0 min 0 min 0 W/m 16,7 km/h (3 Bft)
21.10.2014 06:14 11,7 C 10,6 C 95 % 1009,6 hPa 0,0 l/m 0 min 0 min 0 W/m 20,9 km/h (4 Bft)
21.10.2014 06:16 11,7 C 10,6 C 95 % 1009,6 hPa 0,0 l/m 0 min 0 min 0 W/m 12,6 km/h (3 Bft)
21.10.2014 06:18 11,7 C 10,6 C 95 % 1009,7 hPa 0,0 l/m 0 min 0 min 0 W/m 14,6 km/h (3 Bft)
21.10.2014 06:20 11,7 C 10,6 C 95 % 1009,6 hPa 0,0 l/m 0 min 0 min 0 W/m 14,6 km/h (3 Bft)
21.10.2014 06:22 11,7 C 10,6 C 95 % 1009,6 hPa 0,0 l/m 0 min 0 min 0 W/m 12,6 km/h (3 Bft)
21.10.2014 06:24 11,7 C 10,6 C 95 % 1009,5 hPa 0,0 l/m 0 min 0 min 0 W/m 16,7 km/h (3 Bft)
21.10.2014 06:26 11,7 C 10,6 C 95 % 1009,5 hPa 0,0 l/m 0 min 0 min 0 W/m 14,6 km/h (3 Bft)
21.10.2014 06:28 11,7 C 10,6 C 95 % 1009,5 hPa 0,0 l/m 0 min 0 min 0 W/m 16,7 km/h (3 Bft)
21.10.2014 06:30 11,7 C 10,6 C 95 % 1009,4 hPa 0,0 l/m 0 min 0 min 0 W/m 10,5 km/h (2 Bft)
21.10.2014 06:32 11,7 C 10,6 C 95 % 1009,4 hPa 0,0 l/m 0 min 0 min 0 W/m 14,6 km/h (3 Bft)
21.10.2014 06:34 11,8 C 10,6 C 95 % 1009,4 hPa 0,0 l/m 0 min 0 min 0 W/m 16,7 km/h (3 Bft)
21.10.2014 06:36 11,8 C 10,6 C 95 % 1009,4 hPa 0,0 l/m 0 min 0 min 0 W/m 12,6 km/h (3 Bft)
21.10.2014 06:38 11,8 C 10,6 C 95 % 1009,4 hPa 0,0 l/m 0 min 0 min 0 W/m 16,7 km/h (3 Bft)
21.10.2014 06:40 11,8 C 10,6 C 95 % 1009,4 hPa 0,0 l/m 0 min 0 min 0 W/m 16,7 km/h (3 Bft)
21.10.2014 06:42 11,8 C 10,6 C 95 % 1009,4 hPa 0,0 l/m 0 min 0 min 0 W/m 16,7 km/h (3 Bft)
21.10.2014 06:44 11,8 C 11,1 C 95 % 1009,4 hPa 0,0 l/m 0 min 0 min 0 W/m 20,9 km/h (4 Bft)
21.10.2014 06:46 11,8 C 11,1 C 95 % 1009,4 hPa 0,0 l/m 0 min 0 min 0 W/m 18,8 km/h (3 Bft)
21.10.2014 06:48 11,8 C 11,1 C 95 % 1009,4 hPa 0,0 l/m 0 min 0 min 0 W/m 14,6 km/h (3 Bft)
21.10.2014 06:50 11,8 C 11,1 C 95 % 1009,4 hPa 0,0 l/m 0 min 0 min 0 W/m 18,8 km/h (3 Bft)
21.10.2014 06:52 11,8 C 11,1 C 95 % 1009,4 hPa 0,0 l/m 0 min 0 min 0 W/m 23,0 km/h (4 Bft)
21.10.2014 06:54 11,8 C 11,1 C 95 % 1009,4 hPa 0,0 l/m 0 min 0 min 0 W/m 14,6 km/h (3 Bft)
21.10.2014 06:56 11,9 C 11,1 C 95 % 1009,4 hPa 0,0 l/m 0 min 0 min 0 W/m 18,8 km/h (3 Bft)
21.10.2014 06:58 11,9 C 11,1 C 95 % 1009,4 hPa 0,0 l/m 0 min 0 min 0 W/m 14,6 km/h (3 Bft)
21.10.2014 07:00 11,9 C 11,1 C 95 % 1009,4 hPa 0,0 l/m 0 min 0 min 0 W/m 20,9 km/h (4 Bft)
21.10.2014 07:02 11,9 C 11,1 C 95 % 1009,3 hPa 0,0 l/m 0 min 0 min 0 W/m 14,6 km/h (3 Bft)
21.10.2014 07:04 11,9 C 11,1 C 95 % 1009,3 hPa 0,0 l/m 0 min 0 min 0 W/m 14,6 km/h (3 Bft)
21.10.2014 07:06 11,9 C 11,1 C 94 % 1009,3 hPa 0,0 l/m 0 min 0 min 0 W/m 20,9 km/h (4 Bft)
21.10.2014 07:08 11,9 C 11,1 C 94 % 1009,3 hPa 0,0 l/m 0 min 0 min 0 W/m 16,7 km/h (3 Bft)
21.10.2014 07:10 11,9 C 11,1 C 94 % 1009,3 hPa 0,0 l/m 0 min 0 min 0 W/m 20,9 km/h (4 Bft)
21.10.2014 07:12 11,9 C 11,1 C 94 % 1009,1 hPa 0,0 l/m 0 min 0 min 0 W/m 18,8 km/h (3 Bft)
21.10.2014 07:14 11,9 C 11,1 C 94 % 1009,0 hPa 0,0 l/m 0 min 0 min 0 W/m 23,0 km/h (4 Bft)
21.10.2014 07:16 11,9 C 11,1 C 94 % 1008,9 hPa 0,0 l/m 0 min 0 min 0 W/m 20,9 km/h (4 Bft)
21.10.2014 07:18 11,9 C 11,1 C 94 % 1008,9 hPa 0,0 l/m 0 min 0 min 0 W/m 27,2 km/h (4 Bft)
21.10.2014 07:20 11,9 C 11,1 C 94 % 1008,9 hPa 0,0 l/m 0 min 0 min 0 W/m 20,9 km/h (4 Bft)
21.10.2014 07:22 12,0 C 11,1 C 94 % 1008,7 hPa 0,0 l/m 0 min 0 min 0 W/m 23,0 km/h (4 Bft)
21.10.2014 07:24 12,0 C 11,1 C 94 % 1008,7 hPa 0,0 l/m 0 min 0 min 0 W/m 20,9 km/h (4 Bft)
21.10.2014 07:26 12,0 C 11,1 C 94 % 1008,7 hPa 0,0 l/m 0 min 0 min 0 W/m 23,0 km/h (4 Bft)
21.10.2014 07:28 12,0 C 11,1 C 94 % 1008,6 hPa 0,0 l/m 0 min 0 min 0 W/m 20,9 km/h (4 Bft)
21.10.2014 07:30 12,0 C 11,1 C 93 % 1008,5 hPa 0,0 l/m 0 min 0 min 0 W/m 20,9 km/h (4 Bft)
21.10.2014 07:32 12,0 C 11,1 C 94 % 1008,5 hPa 0,0 l/m 0 min 0 min 0 W/m 18,8 km/h (3 Bft)
21.10.2014 07:34 12,0 C 11,1 C 93 % 1008,5 hPa 0,0 l/m 0 min 0 min 0 W/m 20,9 km/h (4 Bft)
21.10.2014 07:36 12,0 C 11,1 C 93 % 1008,3 hPa 0,0 l/m 0 min 0 min 0 W/m 23,0 km/h (4 Bft)
21.10.2014 07:38 12,0 C 11,1 C 93 % 1008,3 hPa 0,0 l/m 0 min 0 min 0 W/m 16,7 km/h (3 Bft)
21.10.2014 07:40 12,0 C 11,1 C 93 % 1008,2 hPa 0,0 l/m 0 min 0 min 0 W/m 12,6 km/h (3 Bft)
21.10.2014 07:42 12,1 C 11,1 C 93 % 1008,2 hPa 0,0 l/m 0 min 0 min 0 W/m 14,6 km/h (3 Bft)
21.10.2014 07:44 12,0 C 11,1 C 93 % 1008,2 hPa 0,0 l/m 0 min 0 min 0 W/m 20,9 km/h (4 Bft)
21.10.2014 07:46 12,0 C 11,1 C 93 % 1008,2 hPa 0,0 l/m 0 min 0 min 0 W/m 20,9 km/h (4 Bft)
21.10.2014 07:48 12,1 C 11,1 C 93 % 1008,2 hPa 0,0 l/m 0 min 0 min 0 W/m 23,0 km/h (4 Bft)
21.10.2014 07:50 12,1 C 11,1 C 93 % 1008,2 hPa 0,0 l/m 0 min 0 min 0 W/m 18,8 km/h (3 Bft)
21.10.2014 07:52 12,1 C 11,1 C 92 % 1008,3 hPa 0,0 l/m 0 min 0 min 0 W/m 18,8 km/h (3 Bft)
21.10.2014 07:54 12,1 C 11,1 C 92 % 1008,4 hPa 0,0 l/m 0 min 0 min 0 W/m 16,7 km/h (3 Bft)
21.10.2014 07:56 12,1 C 11,1 C 92 % 1008,3 hPa 0,0 l/m 0 min 0 min 0 W/m 12,6 km/h (3 Bft)
21.10.2014 07:58 12,1 C 11,1 C 92 % 1008,2 hPa 0,0 l/m 0 min 0 min 0 W/m 25,1 km/h (4 Bft)
21.10.2014 08:00 12,1 C 11,1 C 92 % 1008,2 hPa 0,0 l/m 0 min 0 min 0 W/m 16,7 km/h (3 Bft)
21.10.2014 08:02 12,1 C 11,1 C 92 % 1008,2 hPa 0,0 l/m 0 min 0 min 0 W/m 14,6 km/h (3 Bft)
21.10.2014 08:04 12,1 C 11,1 C 92 % 1008,1 hPa 0,0 l/m 0 min 0 min 0 W/m 18,8 km/h (3 Bft)
21.10.2014 08:06 12,1 C 11,1 C 92 % 1008,1 hPa 0,0 l/m 0 min 0 min 0 W/m 16,7 km/h (3 Bft)
21.10.2014 08:08 12,1 C 11,1 C 92 % 1008,2 hPa 0,0 l/m 0 min 0 min 0 W/m 23,0 km/h (4 Bft)
21.10.2014 08:10 12,1 C 11,1 C 92 % 1008,2 hPa 0,0 l/m 0 min 0 min 0 W/m 23,0 km/h (4 Bft)
21.10.2014 08:12 12,1 C 11,1 C 92 % 1008,2 hPa 0,0 l/m 0 min 0 min 0 W/m 27,2 km/h (4 Bft)
21.10.2014 08:14 12,1 C 11,1 C 91 % 1008,3 hPa 0,0 l/m 0 min 0 min 0 W/m 14,6 km/h (3 Bft)
21.10.2014 08:16 12,1 C 11,1 C 91 % 1008,3 hPa 0,0 l/m 0 min 0 min 4 W/m 20,9 km/h (4 Bft)
21.10.2014 08:18 12,1 C 11,1 C 91 % 1008,3 hPa 0,0 l/m 0 min 0 min 6 W/m 16,7 km/h (3 Bft)
21.10.2014 08:20 12,1 C 11,1 C 91 % 1008,3 hPa 0,0 l/m 0 min 0 min 7 W/m 23,0 km/h (4 Bft)
21.10.2014 08:22 12,1 C 11,1 C 91 % 1008,2 hPa 0,0 l/m 0 min 0 min 7 W/m 27,2 km/h (4 Bft)
21.10.2014 08:24 12,1 C 11,1 C 91 % 1008,2 hPa 0,0 l/m 0 min 0 min 9 W/m 18,8 km/h (3 Bft)
21.10.2014 08:26 12,1 C 11,1 C 91 % 1008,3 hPa 0,0 l/m 0 min 0 min 9 W/m 25,1 km/h (4 Bft)
21.10.2014 08:28 12,1 C 11,1 C 91 % 1008,2 hPa 0,0 l/m 0 min 0 min 9 W/m 25,1 km/h (4 Bft)
21.10.2014 08:30 12,1 C 11,1 C 90 % 1008,2 hPa 0,0 l/m 0 min 0 min 9 W/m 18,8 km/h (3 Bft)
21.10.2014 08:32 12,1 C 11,1 C 90 % 1008,2 hPa 0,0 l/m 0 min 0 min 9 W/m 10,5 km/h (2 Bft)
21.10.2014 08:34 12,1 C 11,1 C 90 % 1008,1 hPa 0,0 l/m 0 min 0 min 9 W/m 16,7 km/h (3 Bft)
21.10.2014 08:36 12,1 C 11,1 C 90 % 1008,1 hPa 0,0 l/m 0 min 0 min 11 W/m 29,3 km/h (5 Bft)
21.10.2014 08:38 12,1 C 11,1 C 90 % 1008,1 hPa 0,0 l/m 0 min 0 min 14 W/m 18,8 km/h (3 Bft)
21.10.2014 08:40 12,1 C 11,1 C 90 % 1008,1 hPa 0,0 l/m 0 min 0 min 15 W/m 20,9 km/h (4 Bft)
21.10.2014 08:42 12,2 C 11,1 C 90 % 1008,1 hPa 0,0 l/m 0 min 0 min 13 W/m 27,2 km/h (4 Bft)
21.10.2014 08:44 12,2 C 11,1 C 90 % 1008,2 hPa 0,0 l/m 0 min 0 min 12 W/m 27,2 km/h (4 Bft)
21.10.2014 08:46 12,2 C 11,1 C 90 % 1008,1 hPa 0,0 l/m 0 min 0 min 12 W/m 23,0 km/h (4 Bft)
21.10.2014 08:48 12,2 C 11,1 C 90 % 1008,1 hPa 0,0 l/m 0 min 0 min 14 W/m 23,0 km/h (4 Bft)
21.10.2014 08:50 12,2 C 11,1 C 90 % 1008,1 hPa 0,0 l/m 0 min 0 min 14 W/m 25,1 km/h (4 Bft)
21.10.2014 08:52 12,2 C 11,1 C 90 % 1008,1 hPa 0,0 l/m 0 min 0 min 14 W/m 25,1 km/h (4 Bft)
21.10.2014 08:54 12,2 C 11,1 C 89 % 1008,1 hPa 0,0 l/m 0 min 0 min 14 W/m 25,1 km/h (4 Bft)
21.10.2014 08:56 12,2 C 11,1 C 89 % 1008,1 hPa 0,0 l/m 0 min 0 min 20 W/m 18,8 km/h (3 Bft)
21.10.2014 08:58 12,2 C 11,1 C 89 % 1008,1 hPa 0,0 l/m 0 min 0 min 13 W/m 14,6 km/h (3 Bft)
21.10.2014 09:00 12,2 C 11,1 C 89 % 1008,1 hPa 0,0 l/m 0 min 0 min 12 W/m 20,9 km/h (4 Bft)
21.10.2014 09:02 12,2 C 11,1 C 89 % 1008,1 hPa 0,0 l/m 0 min 0 min 16 W/m 27,2 km/h (4 Bft)
21.10.2014 09:04 12,2 C 11,1 C 89 % 1008,0 hPa 0,0 l/m 0 min 0 min 19 W/m 27,2 km/h (4 Bft)
21.10.2014 09:06 12,2 C 11,1 C 89 % 1008,0 hPa 0,0 l/m 0 min 0 min 19 W/m 18,8 km/h (3 Bft)
21.10.2014 09:08 12,2 C 11,1 C 89 % 1008,0 hPa 0,0 l/m 0 min 0 min 18 W/m 23,0 km/h (4 Bft)
21.10.2014 09:10 12,2 C 11,1 C 89 % 1008,0 hPa 0,0 l/m 0 min 0 min 16 W/m 23,0 km/h (4 Bft)
21.10.2014 09:12 12,2 C 11,1 C 89 % 1008,0 hPa 0,0 l/m 0 min 0 min 17 W/m 25,1 km/h (4 Bft)
21.10.2014 09:14 12,2 C 11,1 C 89 % 1008,0 hPa 0,0 l/m 0 min 0 min 18 W/m 23,0 km/h (4 Bft)
21.10.2014 09:16 12,2 C 11,1 C 89 % 1008,0 hPa 0,0 l/m 0 min 0 min 18 W/m 23,0 km/h (4 Bft)
21.10.2014 09:18 12,2 C 11,1 C 89 % 1007,9 hPa 0,0 l/m 0 min 0 min 16 W/m 23,0 km/h (4 Bft)
21.10.2014 09:20 12,2 C 11,1 C 89 % 1007,9 hPa 0,0 l/m 0 min 0 min 17 W/m 14,6 km/h (3 Bft)
21.10.2014 09:22 12,2 C 11,1 C 89 % 1007,9 hPa 0,0 l/m 0 min 0 min 19 W/m 25,1 km/h (4 Bft)
21.10.2014 09:24 12,2 C 11,1 C 88 % 1007,8 hPa 0,0 l/m 0 min 0 min 19 W/m 23,0 km/h (4 Bft)
21.10.2014 09:26 12,2 C 11,1 C 88 % 1007,8 hPa 0,0 l/m 0 min 0 min 22 W/m 16,7 km/h (3 Bft)
21.10.2014 09:28 12,2 C 11,1 C 88 % 1007,8 hPa 0,0 l/m 0 min 0 min 26 W/m 23,0 km/h (4 Bft)
21.10.2014 09:30 12,2 C 11,1 C 88 % 1007,7 hPa 0,0 l/m 0 min 0 min 28 W/m 20,9 km/h (4 Bft)
21.10.2014 09:32 12,3 C 11,1 C 88 % 1007,6 hPa 0,0 l/m 0 min 0 min 31 W/m 18,8 km/h (3 Bft)
21.10.2014 09:34 12,3 C 11,1 C 88 % 1007,6 hPa 0,0 l/m 0 min 0 min 37 W/m 25,1 km/h (4 Bft)
21.10.2014 09:36 12,3 C 11,1 C 88 % 1007,5 hPa 0,0 l/m 0 min 2 min 43 W/m 20,9 km/h (4 Bft)
21.10.2014 09:38 12,3 C 11,1 C 88 % 1007,3 hPa 0,0 l/m 0 min 2 min 50 W/m 25,1 km/h (4 Bft)
21.10.2014 09:40 12,3 C 11,1 C 88 % 1007,2 hPa 0,0 l/m 0 min 2 min 49 W/m 20,9 km/h (4 Bft)
21.10.2014 09:42 12,3 C 11,1 C 88 % 1007,2 hPa 0,0 l/m 0 min 0 min 48 W/m 20,9 km/h (4 Bft)
21.10.2014 09:44 12,3 C 11,1 C 88 % 1007,1 hPa 0,0 l/m 0 min 2 min 52 W/m 25,1 km/h (4 Bft)
21.10.2014 09:46 12,4 C 11,1 C 88 % 1007,0 hPa 0,0 l/m 0 min 2 min 53 W/m 20,9 km/h (4 Bft)
21.10.2014 09:48 12,4 C 11,1 C 88 % 1007,0 hPa 0,0 l/m 0 min 0 min 49 W/m 25,1 km/h (4 Bft)
21.10.2014 09:50 12,4 C 11,1 C 88 % 1007,0 hPa 0,0 l/m 0 min 0 min 49 W/m 27,2 km/h (4 Bft)
21.10.2014 09:52 12,4 C 11,1 C 88 % 1006,9 hPa 0,0 l/m 0 min 0 min 56 W/m 14,6 km/h (3 Bft)
21.10.2014 09:54 12,4 C 11,1 C 88 % 1007,0 hPa 0,0 l/m 0 min 0 min 57 W/m 10,5 km/h (2 Bft)
21.10.2014 09:56 12,4 C 11,1 C 88 % 1006,9 hPa 0,0 l/m 0 min 0 min 57 W/m 29,3 km/h (5 Bft)
21.10.2014 09:58 12,4 C 11,1 C 88 % 1006,8 hPa 0,0 l/m 0 min 0 min 75 W/m 18,8 km/h (3 Bft)
21.10.2014 10:00 12,4 C 11,7 C 88 % 1006,7 hPa 0,0 l/m 2 min 0 min 113 W/m 18,8 km/h (3 Bft)
21.10.2014 10:02 12,4 C 11,7 C 88 % 1006,7 hPa 0,0 l/m 2 min 0 min 132 W/m 25,1 km/h (4 Bft)
21.10.2014 10:04 12,5 C 11,7 C 88 % 1006,7 hPa 0,0 l/m 2 min 0 min 133 W/m 25,1 km/h (4 Bft)
21.10.2014 10:06 12,5 C 11,7 C 88 % 1006,7 hPa 0,0 l/m 2 min 0 min 141 W/m 18,8 km/h (3 Bft)
21.10.2014 10:08 12,6 C 11,7 C 88 % 1006,5 hPa 0,0 l/m 2 min 0 min 175 W/m 20,9 km/h (4 Bft)
21.10.2014 10:10 12,7 C 12,2 C 88 % 1006,4 hPa 0,0 l/m 2 min 0 min 262 W/m 27,2 km/h (4 Bft)
21.10.2014 10:12 12,7 C 12,2 C 88 % 1006,5 hPa 0,0 l/m 2 min 0 min 370 W/m 31,4 km/h (5 Bft)
21.10.2014 10:14 12,8 C 12,2 C 88 % 1006,4 hPa 0,0 l/m 2 min 0 min 228 W/m 27,2 km/h (4 Bft)
21.10.2014 10:16 12,9 C 12,2 C 88 % 1006,4 hPa 0,0 l/m 0 min 0 min 91 W/m 35,6 km/h (5 Bft)
21.10.2014 10:18 12,9 C 12,2 C 88 % 1006,4 hPa 0,0 l/m 0 min 0 min 80 W/m 31,4 km/h (5 Bft)
21.10.2014 10:20 12,9 C 12,2 C 87 % 1006,3 hPa 0,0 l/m 0 min 0 min 73 W/m 18,8 km/h (3 Bft)
21.10.2014 10:22 13,0 C 12,2 C 87 % 1006,2 hPa 0,0 l/m 0 min 0 min 70 W/m 31,4 km/h (5 Bft)
21.10.2014 10:24 13,0 C 11,7 C 87 % 1006,2 hPa 0,0 l/m 0 min 0 min 68 W/m 29,3 km/h (5 Bft)
21.10.2014 10:26 13,0 C 11,7 C 87 % 1006,2 hPa 0,0 l/m 0 min 0 min 66 W/m 39,7 km/h (6 Bft)
21.10.2014 10:28 13,1 C 11,7 C 86 % 1006,1 hPa 0,0 l/m 0 min 0 min 59 W/m 31,4 km/h (5 Bft)
21.10.2014 10:30 13,1 C 11,7 C 86 % 1006,1 hPa 0,0 l/m 0 min 0 min 59 W/m 29,3 km/h (5 Bft)
21.10.2014 10:32 13,1 C 11,7 C 86 % 1006,1 hPa 0,0 l/m 0 min 2 min 55 W/m 50,2 km/h (7 Bft)
21.10.2014 10:34 13,1 C 11,7 C 86 % 1006,1 hPa 0,0 l/m 0 min 2 min 40 W/m 23,0 km/h (4 Bft)
21.10.2014 10:36 13,1 C 11,1 C 86 % 1006,0 hPa 0,0 l/m 0 min 2 min 47 W/m 23,0 km/h (4 Bft)
21.10.2014 10:38 13,1 C 11,1 C 86 % 1005,9 hPa 0,0 l/m 0 min 2 min 53 W/m 31,4 km/h (5 Bft)
21.10.2014 10:40 13,1 C 11,1 C 86 % 1005,8 hPa 0,0 l/m 0 min 0 min 50 W/m 25,1 km/h (4 Bft)
21.10.2014 10:42 13,1 C 11,1 C 86 % 1005,6 hPa 0,0 l/m 0 min 0 min 55 W/m 31,4 km/h (5 Bft)
21.10.2014 10:44 13,1 C 11,1 C 86 % 1005,7 hPa 0,0 l/m 0 min 0 min 78 W/m 29,3 km/h (5 Bft)
21.10.2014 10:46 13,1 C 11,7 C 87 % 1005,8 hPa 0,0 l/m 0 min 0 min 105 W/m 23,0 km/h (4 Bft)
21.10.2014 10:48 13,1 C 11,7 C 87 % 1005,8 hPa 0,0 l/m 0 min 0 min 116 W/m 27,2 km/h (4 Bft)
21.10.2014 10:50 13,1 C 11,7 C 87 % 1005,7 hPa 0,0 l/m 0 min 0 min 120 W/m 23,0 km/h (4 Bft)
21.10.2014 10:52 13,1 C 11,7 C 87 % 1005,7 hPa 0,0 l/m 0 min 0 min 111 W/m 14,6 km/h (3 Bft)
21.10.2014 10:54 13,1 C 11,7 C 87 % 1005,7 hPa 0,0 l/m 0 min 0 min 111 W/m 23,0 km/h (4 Bft)
21.10.2014 10:56 13,1 C 11,7 C 87 % 1005,6 hPa 0,0 l/m 0 min 0 min 111 W/m 29,3 km/h (5 Bft)
21.10.2014 10:58 13,1 C 12,2 C 87 % 1005,7 hPa 0,0 l/m 0 min 0 min 133 W/m 23,0 km/h (4 Bft)
21.10.2014 11:00 13,1 C 12,2 C 87 % 1005,6 hPa 0,0 l/m 0 min 0 min 127 W/m 18,8 km/h (3 Bft)
21.10.2014 11:02 13,1 C 12,2 C 87 % 1005,5 hPa 0,0 l/m 0 min 0 min 128 W/m 33,5 km/h (5 Bft)
21.10.2014 11:04 13,2 C 12,2 C 86 % 1005,4 hPa 0,0 l/m 2 min 0 min 152 W/m 41,8 km/h (6 Bft)
21.10.2014 11:06 13,2 C 12,2 C 86 % 1005,3 hPa 0,0 l/m 0 min 0 min 124 W/m 29,3 km/h (5 Bft)
21.10.2014 11:08 13,2 C 12,2 C 86 % 1005,3 hPa 0,0 l/m 0 min 0 min 70 W/m 18,8 km/h (3 Bft)
21.10.2014 11:10 13,2 C 12,2 C 86 % 1005,3 hPa 0,0 l/m 0 min 0 min 80 W/m 25,1 km/h (4 Bft)
21.10.2014 11:12 13,2 C 12,2 C 86 % 1005,2 hPa 0,0 l/m 2 min 0 min 182 W/m 27,2 km/h (4 Bft)
21.10.2014 11:14 13,2 C 12,2 C 86 % 1005,1 hPa 0,0 l/m 0 min 0 min 107 W/m 35,6 km/h (5 Bft)
21.10.2014 11:16 13,2 C 12,2 C 86 % 1005,1 hPa 0,0 l/m 0 min 0 min 71 W/m 20,9 km/h (4 Bft)
21.10.2014 11:18 13,3 C 12,2 C 86 % 1005,1 hPa 0,0 l/m 0 min 0 min 118 W/m 33,5 km/h (5 Bft)
21.10.2014 11:20 13,3 C 12,2 C 86 % 1004,9 hPa 0,0 l/m 0 min 0 min 156 W/m 27,2 km/h (4 Bft)
21.10.2014 11:22 13,3 C 12,8 C 86 % 1004,8 hPa 0,0 l/m 2 min 0 min 241 W/m 33,5 km/h (5 Bft)
21.10.2014 11:24 13,4 C 12,8 C 85 % 1004,8 hPa 0,0 l/m 2 min 0 min 200 W/m 39,7 km/h (6 Bft)
21.10.2014 11:26 13,4 C 12,8 C 85 % 1004,7 hPa 0,0 l/m 2 min 0 min 179 W/m 25,1 km/h (4 Bft)
21.10.2014 11:28 13,5 C 12,8 C 85 % 1004,7 hPa 0,0 l/m 2 min 0 min 209 W/m 23,0 km/h (4 Bft)
21.10.2014 11:30 13,6 C 12,8 C 85 % 1004,8 hPa 0,0 l/m 2 min 0 min 222 W/m 20,9 km/h (4 Bft)
21.10.2014 11:32 13,6 C 12,8 C 85 % 1004,8 hPa 0,0 l/m 0 min 0 min 127 W/m 33,5 km/h (5 Bft)
21.10.2014 11:34 13,6 C 12,8 C 84 % 1004,8 hPa 0,0 l/m 2 min 0 min 204 W/m 31,4 km/h (5 Bft)
21.10.2014 11:36 13,7 C 12,8 C 84 % 1004,9 hPa 0,0 l/m 0 min 0 min 158 W/m 35,6 km/h (5 Bft)
21.10.2014 11:38 13,7 C 12,8 C 84 % 1004,8 hPa 0,0 l/m 0 min 0 min 118 W/m 43,9 km/h (6 Bft)
21.10.2014 11:40 13,7 C 12,8 C 83 % 1004,7 hPa 0,0 l/m 0 min 0 min 127 W/m 39,7 km/h (6 Bft)
21.10.2014 11:42 13,8 C 12,8 C 83 % 1004,8 hPa 0,0 l/m 2 min 0 min 197 W/m 31,4 km/h (5 Bft)
21.10.2014 11:44 13,8 C 12,8 C 83 % 1004,7 hPa 0,0 l/m 2 min 0 min 296 W/m 37,7 km/h (5 Bft)
21.10.2014 11:46 13,8 C 12,8 C 83 % 1004,7 hPa 0,0 l/m 2 min 0 min 174 W/m 43,9 km/h (6 Bft)
21.10.2014 11:48 13,9 C 12,8 C 83 % 1004,7 hPa 0,0 l/m 0 min 0 min 134 W/m 41,8 km/h (6 Bft)
21.10.2014 11:50 13,9 C 12,8 C 83 % 1004,7 hPa 0,0 l/m 0 min 0 min 78 W/m 33,5 km/h (5 Bft)
21.10.2014 11:52 13,9 C 12,2 C 83 % 1004,5 hPa 0,0 l/m 0 min 0 min 52 W/m 41,8 km/h (6 Bft)
21.10.2014 11:54 13,8 C 12,2 C 82 % 1004,6 hPa 0,0 l/m 0 min 0 min 36 W/m 50,2 km/h (7 Bft)
21.10.2014 11:56 13,8 C 12,2 C 82 % 1004,6 hPa 0,0 l/m 0 min 0 min 19 W/m 39,7 km/h (6 Bft)
21.10.2014 11:58 13,8 C 11,7 C 82 % 1004,6 hPa 0,0 l/m 0 min 2 min 26 W/m 29,3 km/h (5 Bft)
21.10.2014 12:00 13,8 C 11,1 C 83 % 1004,5 hPa 0,0 l/m 0 min 2 min 31 W/m 29,3 km/h (5 Bft)
21.10.2014 12:02 13,7 C 11,1 C 83 % 1004,5 hPa 0,0 l/m 0 min 2 min 30 W/m 35,6 km/h (5 Bft)
21.10.2014 12:05 13,6 C 10,6 C 84 % 1004,4 hPa 0,2 l/m 0 min 2 min 44 W/m 37,7 km/h (5 Bft)
21.10.2014 12:06 13,6 C 10,6 C 84 % 1004,4 hPa 0,2 l/m 0 min 1 min 35 W/m 37,7 km/h (5 Bft)
21.10.2014 12:08 13,5 C 10,6 C 85 % 1004,4 hPa 0,0 l/m 0 min 2 min 64 W/m 25,1 km/h (4 Bft)
21.10.2014 12:10 13,4 C 10,6 C 85 % 1004,3 hPa 0,0 l/m 0 min 2 min 69 W/m 33,5 km/h (5 Bft)
21.10.2014 12:12 13,3 C 10,6 C 86 % 1004,3 hPa 0,2 l/m 0 min 2 min 70 W/m 35,6 km/h (5 Bft)
21.10.2014 12:14 13,2 C 10,6 C 86 % 1004,3 hPa 0,0 l/m 0 min 2 min 79 W/m 29,3 km/h (5 Bft)
21.10.2014 12:16 13,2 C 10,6 C 87 % 1004,3 hPa 0,0 l/m 0 min 2 min 101 W/m 27,2 km/h (4 Bft)
21.10.2014 12:18 13,1 C 10,6 C 87 % 1004,2 hPa 0,2 l/m 0 min 2 min 105 W/m 35,6 km/h (5 Bft)
21.10.2014 12:20 13,0 C 10,6 C 88 % 1004,2 hPa 0,0 l/m 0 min 2 min 84 W/m 39,7 km/h (6 Bft)
21.10.2014 12:22 12,9 C 10,6 C 88 % 1004,1 hPa 0,0 l/m 0 min 2 min 85 W/m 31,4 km/h (5 Bft)
21.10.2014 12:24 12,8 C 10,6 C 89 % 1003,9 hPa 0,0 l/m 0 min 2 min 90 W/m 27,2 km/h (4 Bft)
21.10.2014 12:26 12,8 C 10,6 C 89 % 1004,0 hPa 0,0 l/m 0 min 2 min 76 W/m 33,5 km/h (5 Bft)
21.10.2014 12:28 12,7 C 10,6 C 89 % 1004,0 hPa 0,0 l/m 0 min 2 min 74 W/m 33,5 km/h (5 Bft)
21.10.2014 12:30 12,6 C 10,6 C 90 % 1003,9 hPa 0,0 l/m 0 min 2 min 78 W/m 31,4 km/h (5 Bft)
21.10.2014 12:32 12,6 C 10,6 C 90 % 1003,9 hPa 0,0 l/m 0 min 2 min 77 W/m 20,9 km/h (4 Bft)
21.10.2014 12:34 12,6 C 10,6 C 90 % 1003,9 hPa 0,2 l/m 0 min 2 min 80 W/m 27,2 km/h (4 Bft)
21.10.2014 12:36 12,5 C 10,6 C 90 % 1003,8 hPa 0,0 l/m 0 min 2 min 97 W/m 25,1 km/h (4 Bft)
21.10.2014 12:38 12,4 C 10,6 C 91 % 1003,7 hPa 0,0 l/m 0 min 2 min 109 W/m 27,2 km/h (4 Bft)
21.10.2014 12:40 12,4 C 10,6 C 91 % 1003,7 hPa 0,0 l/m 0 min 2 min 99 W/m 29,3 km/h (5 Bft)
21.10.2014 12:42 12,4 C 10,6 C 91 % 1003,6 hPa 0,2 l/m 0 min 2 min 93 W/m 18,8 km/h (3 Bft)
21.10.2014 12:44 12,4 C 10,6 C 91 % 1003,5 hPa 0,0 l/m 0 min 2 min 94 W/m 33,5 km/h (5 Bft)
21.10.2014 12:46 12,3 C 10,6 C 92 % 1003,4 hPa 0,0 l/m 0 min 2 min 93 W/m 33,5 km/h (5 Bft)
21.10.2014 12:48 12,3 C 10,6 C 92 % 1003,4 hPa 0,0 l/m 0 min 2 min 88 W/m 27,2 km/h (4 Bft)
21.10.2014 12:50 12,3 C 10,6 C 92 % 1003,3 hPa 0,0 l/m 0 min 2 min 81 W/m 27,2 km/h (4 Bft)
21.10.2014 12:52 12,3 C 10,6 C 92 % 1003,3 hPa 0,2 l/m 0 min 2 min 75 W/m 25,1 km/h (4 Bft)
21.10.2014 12:54 12,3 C 10,6 C 92 % 1003,2 hPa 0,0 l/m 0 min 2 min 69 W/m 25,1 km/h (4 Bft)
21.10.2014 12:56 12,2 C 10,6 C 93 % 1003,0 hPa 0,0 l/m 0 min 2 min 65 W/m 33,5 km/h (5 Bft)
21.10.2014 12:58 12,2 C 10,6 C 93 % 1003,0 hPa 0,0 l/m 0 min 0 min 66 W/m 27,2 km/h (4 Bft)
21.10.2014 13:00 12,2 C 10,6 C 93 % 1002,9 hPa 0,0 l/m 0 min 2 min 66 W/m 31,4 km/h (5 Bft)
21.10.2014 13:02 12,2 C 10,6 C 93 % 1002,8 hPa 0,0 l/m 0 min 2 min 72 W/m 35,6 km/h (5 Bft)
21.10.2014 13:04 12,2 C 10,6 C 93 % 1002,8 hPa 0,0 l/m 0 min 2 min 92 W/m 29,3 km/h (5 Bft)
21.10.2014 13:06 12,1 C 10,6 C 93 % 1002,7 hPa 0,0 l/m 0 min 2 min 108 W/m 20,9 km/h (4 Bft)
21.10.2014 13:08 12,1 C 10,6 C 93 % 1002,7 hPa 0,0 l/m 0 min 2 min 95 W/m 33,5 km/h (5 Bft)
21.10.2014 13:10 12,1 C 10,6 C 93 % 1002,6 hPa 0,0 l/m 0 min 2 min 98 W/m 31,4 km/h (5 Bft)
21.10.2014 13:12 12,1 C 10,6 C 94 % 1002,5 hPa 0,0 l/m 0 min 2 min 111 W/m 27,2 km/h (4 Bft)
21.10.2014 13:14 12,1 C 10,6 C 94 % 1002,4 hPa 0,0 l/m 0 min 0 min 99 W/m 27,2 km/h (4 Bft)
21.10.2014 13:16 12,1 C 10,6 C 94 % 1002,4 hPa 0,0 l/m 0 min 0 min 76 W/m 16,7 km/h (3 Bft)
21.10.2014 13:18 12,1 C 10,6 C 94 % 1002,3 hPa 0,0 l/m 0 min 0 min 65 W/m 27,2 km/h (4 Bft)
21.10.2014 13:20 12,1 C 10,6 C 94 % 1002,3 hPa 0,0 l/m 0 min 0 min 59 W/m 25,1 km/h (4 Bft)
21.10.2014 13:22 12,1 C 10,6 C 94 % 1002,2 hPa 0,0 l/m 0 min 0 min 55 W/m 16,7 km/h (3 Bft)
21.10.2014 13:24 12,1 C 10,6 C 94 % 1002,2 hPa 0,0 l/m 0 min 0 min 53 W/m 29,3 km/h (5 Bft)
21.10.2014 13:26 12,1 C 10,6 C 94 % 1002,0 hPa 0,0 l/m 0 min 0 min 47 W/m 27,2 km/h (4 Bft)
21.10.2014 13:28 12,0 C 10,6 C 94 % 1002,0 hPa 0,0 l/m 0 min 0 min 51 W/m 20,9 km/h (4 Bft)
21.10.2014 13:30 12,0 C 10,6 C 94 % 1001,9 hPa 0,0 l/m 0 min 0 min 74 W/m 31,4 km/h (5 Bft)
21.10.2014 13:32 12,0 C 10,6 C 94 % 1001,9 hPa 0,0 l/m 0 min 0 min 79 W/m 31,4 km/h (5 Bft)
21.10.2014 13:34 12,0 C 10,6 C 94 % 1001,8 hPa 0,0 l/m 0 min 0 min 83 W/m 18,8 km/h (3 Bft)
21.10.2014 13:36 12,0 C 10,6 C 94 % 1001,8 hPa 0,0 l/m 0 min 0 min 94 W/m 33,5 km/h (5 Bft)
21.10.2014 13:38 12,0 C 10,6 C 94 % 1001,7 hPa 0,0 l/m 0 min 0 min 91 W/m 41,8 km/h (6 Bft)
21.10.2014 13:40 12,1 C 10,6 C 94 % 1001,6 hPa 0,0 l/m 0 min 0 min 112 W/m 39,7 km/h (6 Bft)
21.10.2014 13:42 12,1 C 10,6 C 94 % 1001,6 hPa 0,0 l/m 0 min 2 min 98 W/m 39,7 km/h (6 Bft)
21.10.2014 13:44 12,1 C 10,6 C 94 % 1001,6 hPa 0,0 l/m 0 min 0 min 89 W/m 50,2 km/h (7 Bft)
21.10.2014 13:46 12,1 C 10,6 C 94 % 1001,5 hPa 0,0 l/m 0 min 2 min 66 W/m 39,7 km/h (6 Bft)
21.10.2014 13:48 12,1 C 10,6 C 94 % 1001,6 hPa 0,0 l/m 0 min 0 min 55 W/m 31,4 km/h (5 Bft)
21.10.2014 13:50 12,2 C 10,6 C 94 % 1001,5 hPa 0,0 l/m 0 min 0 min 48 W/m 27,2 km/h (4 Bft)
21.10.2014 13:52 12,2 C 10,6 C 95 % 1001,5 hPa 0,0 l/m 0 min 0 min 40 W/m 25,1 km/h (4 Bft)
21.10.2014 13:54 12,2 C 10,6 C 94 % 1001,4 hPa 0,0 l/m 0 min 0 min 53 W/m 25,1 km/h (4 Bft)
21.10.2014 13:56 12,2 C 10,6 C 94 % 1001,4 hPa 0,0 l/m 0 min 0 min 78 W/m 35,6 km/h (5 Bft)
21.10.2014 13:58 12,2 C 10,6 C 94 % 1001,3 hPa 0,0 l/m 0 min 0 min 70 W/m 35,6 km/h (5 Bft)
21.10.2014 14:00 12,2 C 10,6 C 94 % 1001,3 hPa 0,0 l/m 0 min 0 min 61 W/m 31,4 km/h (5 Bft)
21.10.2014 14:02 12,2 C 10,6 C 94 % 1001,3 hPa 0,0 l/m 0 min 0 min 58 W/m 35,6 km/h (5 Bft)
21.10.2014 14:04 12,3 C 10,6 C 94 % 1001,1 hPa 0,0 l/m 0 min 2 min 69 W/m 33,5 km/h (5 Bft)
21.10.2014 14:06 12,3 C 11,1 C 94 % 1001,0 hPa 0,0 l/m 0 min 2 min 84 W/m 18,8 km/h (3 Bft)
21.10.2014 14:08 12,3 C 11,1 C 94 % 1001,0 hPa 0,0 l/m 0 min 0 min 88 W/m 33,5 km/h (5 Bft)
21.10.2014 14:10 12,4 C 11,1 C 94 % 1001,0 hPa 0,0 l/m 0 min 0 min 71 W/m 35,6 km/h (5 Bft)
21.10.2014 14:12 12,4 C 11,1 C 94 % 1001,0 hPa 0,0 l/m 0 min 0 min 85 W/m 35,6 km/h (5 Bft)
21.10.2014 14:14 12,4 C 11,1 C 94 % 1000,9 hPa 0,0 l/m 0 min 0 min 69 W/m 35,6 km/h (5 Bft)
21.10.2014 14:16 12,5 C 11,1 C 94 % 1001,0 hPa 0,0 l/m 0 min 0 min 50 W/m 29,3 km/h (5 Bft)
21.10.2014 14:18 12,5 C 11,1 C 94 % 1000,9 hPa 0,0 l/m 0 min 0 min 90 W/m 29,3 km/h (5 Bft)
21.10.2014 14:20 12,6 C 11,7 C 94 % 1000,7 hPa 0,0 l/m 2 min 0 min 189 W/m 39,7 km/h (6 Bft)
21.10.2014 14:22 12,6 C 11,7 C 94 % 1000,6 hPa 0,0 l/m 0 min 0 min 111 W/m 31,4 km/h (5 Bft)
21.10.2014 14:24 12,7 C 11,1 C 93 % 1000,7 hPa 0,0 l/m 0 min 0 min 43 W/m 33,5 km/h (5 Bft)
21.10.2014 14:26 12,7 C 11,1 C 93 % 1000,6 hPa 0,0 l/m 0 min 0 min 56 W/m 37,7 km/h (5 Bft)
21.10.2014 14:28 12,7 C 11,1 C 93 % 1000,4 hPa 0,0 l/m 0 min 0 min 63 W/m 33,5 km/h (5 Bft)
21.10.2014 14:30 12,8 C 11,1 C 93 % 1000,4 hPa 0,0 l/m 0 min 0 min 45 W/m 31,4 km/h (5 Bft)
21.10.2014 14:32 12,8 C 11,1 C 93 % 1000,4 hPa 0,0 l/m 0 min 0 min 30 W/m 43,9 km/h (6 Bft)
21.10.2014 14:34 12,8 C 11,1 C 93 % 1000,4 hPa 0,0 l/m 0 min 0 min 34 W/m 35,6 km/h (5 Bft)
21.10.2014 14:36 12,8 C 11,1 C 93 % 1000,2 hPa 0,0 l/m 0 min 0 min 57 W/m 23,0 km/h (4 Bft)
21.10.2014 14:38 12,8 C 11,1 C 92 % 1000,2 hPa 0,0 l/m 0 min 0 min 60 W/m 20,9 km/h (4 Bft)
21.10.2014 14:40 12,9 C 11,1 C 92 % 1000,2 hPa 0,0 l/m 0 min 2 min 56 W/m 31,4 km/h (5 Bft)
21.10.2014 14:42 12,9 C 11,1 C 92 % 1000,2 hPa 0,2 l/m 0 min 2 min 48 W/m 33,5 km/h (5 Bft)
21.10.2014 14:44 12,9 C 11,1 C 92 % 1000,1 hPa 0,0 l/m 0 min 2 min 52 W/m 35,6 km/h (5 Bft)
21.10.2014 14:46 12,9 C 11,1 C 92 % 1000,0 hPa 0,2 l/m 0 min 2 min 65 W/m 39,7 km/h (6 Bft)
21.10.2014 14:48 13,0 C 11,1 C 92 % 1000,0 hPa 0,0 l/m 0 min 2 min 70 W/m 37,7 km/h (5 Bft)
21.10.2014 14:50 13,0 C 11,1 C 92 % 999,8 hPa 0,0 l/m 0 min 2 min 90 W/m 37,7 km/h (5 Bft)
21.10.2014 14:52 13,0 C 11,1 C 92 % 999,7 hPa 0,0 l/m 0 min 2 min 89 W/m 39,7 km/h (6 Bft)
21.10.2014 14:54 13,0 C 11,1 C 92 % 999,8 hPa 0,2 l/m 0 min 2 min 85 W/m 31,4 km/h (5 Bft)
21.10.2014 14:56 13,0 C 11,1 C 93 % 999,7 hPa 0,0 l/m 0 min 2 min 79 W/m 23,0 km/h (4 Bft)
21.10.2014 14:58 12,9 C 11,1 C 92 % 999,6 hPa 0,0 l/m 0 min 2 min 86 W/m 20,9 km/h (4 Bft)
21.10.2014 15:00 12,9 C 11,1 C 93 % 999,6 hPa 0,0 l/m 0 min 2 min 83 W/m 27,2 km/h (4 Bft)
21.10.2014 15:02 12,9 C 11,1 C 93 % 999,5 hPa 0,0 l/m 0 min 2 min 87 W/m 25,1 km/h (4 Bft)
21.10.2014 15:04 12,9 C 11,1 C 93 % 999,5 hPa 0,0 l/m 0 min 2 min 101 W/m 35,6 km/h (5 Bft)
21.10.2014 15:06 12,9 C 11,1 C 93 % 999,5 hPa 0,0 l/m 0 min 2 min 74 W/m 33,5 km/h (5 Bft)
21.10.2014 15:08 12,9 C 11,1 C 93 % 999,5 hPa 0,0 l/m 0 min 2 min 77 W/m 33,5 km/h (5 Bft)
21.10.2014 15:10 12,9 C 11,1 C 93 % 999,4 hPa 0,0 l/m 0 min 2 min 82 W/m 33,5 km/h (5 Bft)
21.10.2014 15:12 12,9 C 11,1 C 93 % 999,4 hPa 0,0 l/m 0 min 0 min 67 W/m 29,3 km/h (5 Bft)
21.10.2014 15:14 12,9 C 11,1 C 93 % 999,4 hPa 0,0 l/m 0 min 2 min 59 W/m 35,6 km/h (5 Bft)
21.10.2014 15:16 12,9 C 11,1 C 94 % 999,1 hPa 0,0 l/m 0 min 0 min 61 W/m 37,7 km/h (5 Bft)
21.10.2014 15:18 12,9 C 11,1 C 94 % 999,2 hPa 0,0 l/m 0 min 2 min 67 W/m 39,7 km/h (6 Bft)
21.10.2014 15:20 12,9 C 11,1 C 94 % 999,2 hPa 0,0 l/m 0 min 2 min 65 W/m 35,6 km/h (5 Bft)
21.10.2014 15:22 12,9 C 11,1 C 94 % 998,9 hPa 0,0 l/m 0 min 0 min 38 W/m 35,6 km/h (5 Bft)
21.10.2014 15:24 12,9 C 11,1 C 94 % 999,0 hPa 0,0 l/m 0 min 2 min 20 W/m 41,8 km/h (6 Bft)
21.10.2014 15:26 12,9 C 11,1 C 94 % 999,0 hPa 0,0 l/m 0 min 2 min 26 W/m 33,5 km/h (5 Bft)
21.10.2014 15:28 12,9 C 11,1 C 94 % 999,0 hPa 0,0 l/m 0 min 2 min 43 W/m 35,6 km/h (5 Bft)
21.10.2014 15:30 12,9 C 11,1 C 94 % 998,8 hPa 0,0 l/m 0 min 2 min 62 W/m 39,7 km/h (6 Bft)
21.10.2014 15:32 12,9 C 11,1 C 94 % 998,8 hPa 0,0 l/m 0 min 2 min 84 W/m 39,7 km/h (6 Bft)
21.10.2014 15:34 12,9 C 11,7 C 94 % 998,7 hPa 0,0 l/m 0 min 2 min 108 W/m 39,7 km/h (6 Bft)
21.10.2014 15:36 12,9 C 11,7 C 94 % 998,7 hPa 0,0 l/m 0 min 2 min 94 W/m 35,6 km/h (5 Bft)
21.10.2014 15:38 13,0 C 11,7 C 94 % 998,7 hPa 0,0 l/m 0 min 2 min 57 W/m 31,4 km/h (5 Bft)
21.10.2014 15:40 13,0 C 11,7 C 94 % 998,6 hPa 0,0 l/m 0 min 2 min 46 W/m 50,2 km/h (7 Bft)
21.10.2014 15:42 13,1 C 11,7 C 94 % 998,5 hPa 0,0 l/m 0 min 2 min 44 W/m 46,0 km/h (6 Bft)
21.10.2014 15:44 13,1 C 11,7 C 94 % 998,5 hPa 0,0 l/m 0 min 2 min 50 W/m 33,5 km/h (5 Bft)
21.10.2014 15:46 13,2 C 11,7 C 94 % 998,4 hPa 0,2 l/m 0 min 2 min 51 W/m 43,9 km/h (6 Bft)
21.10.2014 15:48 13,2 C 11,7 C 94 % 998,7 hPa 0,0 l/m 0 min 2 min 45 W/m 39,7 km/h (6 Bft)
21.10.2014 15:50 13,2 C 11,7 C 94 % 998,7 hPa 0,2 l/m 0 min 2 min 34 W/m 41,8 km/h (6 Bft)
21.10.2014 15:52 13,2 C 11,1 C 94 % 998,7 hPa 0,2 l/m 0 min 2 min 28 W/m 43,9 km/h (6 Bft)
21.10.2014 15:54 13,2 C 11,1 C 94 % 998,8 hPa 0,2 l/m 0 min 2 min 16 W/m 52,3 km/h (7 Bft)
21.10.2014 15:56 13,2 C 11,1 C 94 % 999,0 hPa 0,4 l/m 0 min 2 min 11 W/m 33,5 km/h (5 Bft)
21.10.2014 15:58 13,2 C 11,1 C 94 % 999,0 hPa 0,2 l/m 0 min 2 min 10 W/m 20,9 km/h (4 Bft)
21.10.2014 16:00 13,2 C 11,1 C 94 % 999,2 hPa 0,0 l/m 0 min 2 min 17 W/m 29,3 km/h (5 Bft)
21.10.2014 16:02 13,2 C 11,1 C 94 % 999,2 hPa 0,2 l/m 0 min 2 min 28 W/m 46,0 km/h (6 Bft)
21.10.2014 16:04 13,1 C 11,1 C 94 % 999,1 hPa 0,0 l/m 0 min 2 min 31 W/m 35,6 km/h (5 Bft)
21.10.2014 16:06 13,1 C 11,1 C 94 % 999,2 hPa 0,0 l/m 0 min 2 min 29 W/m 37,7 km/h (5 Bft)
21.10.2014 16:08 13,0 C 11,1 C 94 % 999,3 hPa 0,0 l/m 0 min 2 min 26 W/m 29,3 km/h (5 Bft)
21.10.2014 16:10 12,9 C 11,1 C 94 % 999,5 hPa 0,2 l/m 0 min 2 min 30 W/m 41,8 km/h (6 Bft)
21.10.2014 16:12 12,9 C 11,1 C 94 % 999,3 hPa 0,2 l/m 0 min 2 min 49 W/m 37,7 km/h (5 Bft)
21.10.2014 16:14 12,8 C 11,1 C 94 % 999,3 hPa 0,0 l/m 0 min 2 min 52 W/m 31,4 km/h (5 Bft)
21.10.2014 16:16 12,8 C 11,1 C 94 % 999,5 hPa 0,2 l/m 0 min 2 min 44 W/m 31,4 km/h (5 Bft)
21.10.2014 16:18 12,7 C 10,6 C 94 % 999,4 hPa 0,0 l/m 0 min 2 min 20 W/m 58,6 km/h (7 Bft)
21.10.2014 16:20 12,5 C 10,6 C 94 % 999,5 hPa 0,2 l/m 0 min 2 min 19 W/m 46,0 km/h (6 Bft)
21.10.2014 16:22 12,4 C 10,6 C 94 % 999,5 hPa 0,0 l/m 0 min 2 min 40 W/m 29,3 km/h (5 Bft)
21.10.2014 16:24 12,3 C 10,0 C 94 % 999,6 hPa 0,0 l/m 0 min 2 min 63 W/m 50,2 km/h (7 Bft)
21.10.2014 16:26 12,1 C 10,0 C 94 % 999,3 hPa 0,2 l/m 0 min 2 min 85 W/m 41,8 km/h (6 Bft)
21.10.2014 16:28 12,0 C 10,0 C 94 % 999,7 hPa 0,0 l/m 0 min 2 min 82 W/m 41,8 km/h (6 Bft)
21.10.2014 16:30 11,9 C 10,0 C 94 % 999,8 hPa 0,0 l/m 0 min 2 min 62 W/m 27,2 km/h (4 Bft)
21.10.2014 16:32 11,9 C 10,0 C 94 % 999,5 hPa 0,0 l/m 0 min 2 min 53 W/m 29,3 km/h (5 Bft)
21.10.2014 16:34 11,8 C 10,0 C 94 % 999,4 hPa 0,0 l/m 0 min 0 min 43 W/m 33,5 km/h (5 Bft)
21.10.2014 16:36 11,7 C 10,0 C 94 % 999,6 hPa 0,0 l/m 0 min 0 min 35 W/m 39,7 km/h (6 Bft)
21.10.2014 16:38 11,6 C 10,0 C 94 % 999,6 hPa 0,0 l/m 0 min 0 min 34 W/m 39,7 km/h (6 Bft)
21.10.2014 16:40 11,5 C 10,0 C 94 % 999,9 hPa 0,0 l/m 0 min 0 min 32 W/m 29,3 km/h (5 Bft)
21.10.2014 16:42 11,4 C 9,4 C 94 % 1000,1 hPa 0,0 l/m 0 min 0 min 27 W/m 31,4 km/h (5 Bft)
21.10.2014 16:44 11,4 C 10,0 C 94 % 1000,0 hPa 0,0 l/m 0 min 0 min 31 W/m 20,9 km/h (4 Bft)
21.10.2014 16:46 11,3 C 10,0 C 94 % 1000,2 hPa 0,0 l/m 0 min 0 min 54 W/m 27,2 km/h (4 Bft)
21.10.2014 16:48 11,3 C 10,0 C 94 % 1000,2 hPa 0,0 l/m 2 min 0 min 118 W/m 31,4 km/h (5 Bft)
21.10.2014 16:50 11,3 C 10,0 C 94 % 1000,1 hPa 0,0 l/m 2 min 0 min 113 W/m 23,0 km/h (4 Bft)
21.10.2014 16:52 11,3 C 10,0 C 94 % 1000,2 hPa 0,0 l/m 2 min 0 min 109 W/m 25,1 km/h (4 Bft)
21.10.2014 16:54 11,3 C 10,0 C 94 % 1000,4 hPa 0,0 l/m 2 min 0 min 143 W/m 23,0 km/h (4 Bft)
21.10.2014 16:56 11,3 C 10,6 C 94 % 1000,5 hPa 0,0 l/m 2 min 0 min 141 W/m 31,4 km/h (5 Bft)
21.10.2014 16:58 11,3 C 10,6 C 94 % 1000,6 hPa 0,0 l/m 2 min 0 min 87 W/m 27,2 km/h (4 Bft)
21.10.2014 17:00 11,3 C 10,0 C 94 % 1000,8 hPa 0,0 l/m 0 min 0 min 47 W/m 14,6 km/h (3 Bft)
21.10.2014 17:02 11,3 C 10,0 C 94 % 1000,7 hPa 0,0 l/m 0 min 2 min 37 W/m 25,1 km/h (4 Bft)
21.10.2014 17:04 11,3 C 10,0 C 94 % 1000,9 hPa 0,0 l/m 0 min 2 min 31 W/m 25,1 km/h (4 Bft)
21.10.2014 17:06 11,3 C 10,0 C 94 % 1000,9 hPa 0,0 l/m 0 min 0 min 27 W/m 23,0 km/h (4 Bft)
21.10.2014 17:08 11,3 C 10,0 C 94 % 1000,8 hPa 0,0 l/m 0 min 0 min 31 W/m 33,5 km/h (5 Bft)
21.10.2014 17:10 11,3 C 10,0 C 94 % 1000,8 hPa 0,0 l/m 0 min 0 min 48 W/m 20,9 km/h (4 Bft)
21.10.2014 17:12 11,3 C 10,0 C 94 % 1001,0 hPa 0,0 l/m 0 min 0 min 68 W/m 14,6 km/h (3 Bft)
21.10.2014 17:14 11,3 C 10,0 C 94 % 1001,0 hPa 0,0 l/m 2 min 0 min 86 W/m 23,0 km/h (4 Bft)
21.10.2014 17:16 11,3 C 10,0 C 94 % 1001,0 hPa 0,0 l/m 2 min 0 min 86 W/m 12,6 km/h (3 Bft)
21.10.2014 17:18 11,3 C 10,0 C 95 % 1001,0 hPa 0,0 l/m 2 min 0 min 79 W/m 16,7 km/h (3 Bft)
21.10.2014 17:20 11,3 C 10,0 C 95 % 1001,0 hPa 0,0 l/m 2 min 0 min 69 W/m 18,8 km/h (3 Bft)
21.10.2014 17:22 11,3 C 10,0 C 95 % 1001,2 hPa 0,0 l/m 0 min 0 min 56 W/m 25,1 km/h (4 Bft)
21.10.2014 17:24 11,3 C 10,0 C 95 % 1001,2 hPa 0,0 l/m 0 min 0 min 58 W/m 20,9 km/h (4 Bft)
21.10.2014 17:26 11,3 C 10,0 C 95 % 1001,2 hPa 0,0 l/m 2 min 0 min 70 W/m 23,0 km/h (4 Bft)
21.10.2014 17:28 11,3 C 10,0 C 95 % 1001,3 hPa 0,0 l/m 0 min 0 min 56 W/m 23,0 km/h (4 Bft)
21.10.2014 17:30 11,3 C 10,0 C 95 % 1001,3 hPa 0,0 l/m 0 min 2 min 36 W/m 18,8 km/h (3 Bft)
21.10.2014 17:32 11,3 C 10,0 C 95 % 1001,4 hPa 0,0 l/m 0 min 0 min 32 W/m 16,7 km/h (3 Bft)
21.10.2014 17:34 11,3 C 10,0 C 95 % 1001,4 hPa 0,0 l/m 0 min 0 min 27 W/m 33,5 km/h (5 Bft)
21.10.2014 17:36 11,2 C 10,0 C 94 % 1001,5 hPa 0,0 l/m 0 min 0 min 29 W/m 23,0 km/h (4 Bft)
21.10.2014 17:38 11,2 C 10,0 C 94 % 1001,5 hPa 0,0 l/m 0 min 0 min 35 W/m 23,0 km/h (4 Bft)
21.10.2014 17:40 11,1 C 10,0 C 94 % 1001,5 hPa 0,0 l/m 0 min 0 min 33 W/m 29,3 km/h (5 Bft)
21.10.2014 17:42 11,1 C 9,4 C 94 % 1001,6 hPa 0,0 l/m 0 min 0 min 25 W/m 33,5 km/h (5 Bft)
21.10.2014 17:44 11,0 C 9,4 C 94 % 1001,5 hPa 0,0 l/m 0 min 0 min 21 W/m 29,3 km/h (5 Bft)
21.10.2014 17:46 11,0 C 9,4 C 94 % 1001,5 hPa 0,0 l/m 0 min 0 min 21 W/m 31,4 km/h (5 Bft)
21.10.2014 17:48 10,9 C 9,4 C 94 % 1001,6 hPa 0,0 l/m 0 min 0 min 20 W/m 20,9 km/h (4 Bft)
21.10.2014 17:50 10,9 C 9,4 C 94 % 1001,6 hPa 0,0 l/m 0 min 0 min 19 W/m 31,4 km/h (5 Bft)
21.10.2014 17:52 10,9 C 9,4 C 93 % 1001,6 hPa 0,0 l/m 0 min 0 min 18 W/m 29,3 km/h (5 Bft)
21.10.2014 17:54 10,8 C 9,4 C 93 % 1001,6 hPa 0,0 l/m 0 min 0 min 16 W/m 25,1 km/h (4 Bft)
21.10.2014 17:56 10,8 C 9,4 C 93 % 1001,6 hPa 0,0 l/m 0 min 0 min 13 W/m 20,9 km/h (4 Bft)
21.10.2014 17:58 10,8 C 9,4 C 93 % 1001,6 hPa 0,0 l/m 0 min 0 min 14 W/m 27,2 km/h (4 Bft)
21.10.2014 18:00 10,8 C 9,4 C 93 % 1001,8 hPa 0,0 l/m 0 min 0 min 15 W/m 20,9 km/h (4 Bft)
21.10.2014 18:02 10,8 C 9,4 C 92 % 1001,8 hPa 0,0 l/m 0 min 0 min 16 W/m 25,1 km/h (4 Bft)
21.10.2014 18:05 10,8 C 9,4 C 92 % 1001,8 hPa 0,0 l/m 0 min 0 min 13 W/m 25,1 km/h (4 Bft)
21.10.2014 18:06 10,8 C 9,4 C 92 % 1001,8 hPa 0,0 l/m 0 min 0 min 16 W/m 12,6 km/h (3 Bft)
21.10.2014 18:08 10,8 C 9,4 C 92 % 1001,9 hPa 0,0 l/m 2 min 0 min 17 W/m 20,9 km/h (4 Bft)
21.10.2014 18:10 10,8 C 9,4 C 92 % 1001,9 hPa 0,0 l/m 2 min 0 min 16 W/m 39,7 km/h (6 Bft)
21.10.2014 18:12 10,7 C 9,4 C 91 % 1002,0 hPa 0,0 l/m 0 min 0 min 12 W/m 33,5 km/h (5 Bft)
21.10.2014 18:14 10,7 C 8,9 C 91 % 1002,0 hPa 0,0 l/m 0 min 0 min 8 W/m 35,6 km/h (5 Bft)
21.10.2014 18:16 10,6 C 8,9 C 91 % 1002,0 hPa 0,0 l/m 0 min 0 min 7 W/m 37,7 km/h (5 Bft)
21.10.2014 18:18 10,5 C 8,9 C 90 % 1002,1 hPa 0,0 l/m 0 min 0 min 5 W/m 43,9 km/h (6 Bft)
21.10.2014 18:20 10,5 C 8,3 C 90 % 1002,1 hPa 0,0 l/m 0 min 2 min 0 W/m 27,2 km/h (4 Bft)
21.10.2014 18:22 10,4 C 8,3 C 90 % 1002,3 hPa 0,2 l/m 0 min 2 min 0 W/m 31,4 km/h (5 Bft)
21.10.2014 18:24 10,4 C 8,3 C 90 % 1002,5 hPa 0,4 l/m 0 min 2 min 0 W/m 39,7 km/h (6 Bft)
21.10.2014 18:26 10,3 C 7,8 C 90 % 1002,3 hPa 0,0 l/m 0 min 2 min 0 W/m 37,7 km/h (5 Bft)
21.10.2014 18:28 10,2 C 7,8 C 90 % 1002,6 hPa 0,2 l/m 0 min 2 min 0 W/m 27,2 km/h (4 Bft)
21.10.2014 18:30 10,1 C 7,8 C 90 % 1002,6 hPa 0,8 l/m 0 min 2 min 0 W/m 66,9 km/h (8 Bft)
21.10.2014 18:32 9,9 C 7,8 C 90 % 1003,1 hPa 0,0 l/m 0 min 2 min 0 W/m 62,8 km/h (8 Bft)
21.10.2014 18:34 9,8 C 7,8 C 90 % 1003,0 hPa 0,2 l/m 0 min 2 min 0 W/m 52,3 km/h (7 Bft)
21.10.2014 18:36 9,7 C 7,2 C 90 % 1003,1 hPa 0,2 l/m 0 min 2 min 0 W/m 48,1 km/h (6 Bft)
21.10.2014 18:38 9,6 C 7,2 C 90 % 1003,0 hPa 0,0 l/m 0 min 2 min 0 W/m 35,6 km/h (5 Bft)
21.10.2014 18:40 9,5 C 7,8 C 91 % 1002,8 hPa 0,0 l/m 0 min 2 min 0 W/m 46,0 km/h (6 Bft)
21.10.2014 18:42 9,4 C 7,2 C 91 % 1002,8 hPa 0,0 l/m 0 min 2 min 0 W/m 41,8 km/h (6 Bft)
21.10.2014 18:44 9,3 C 7,2 C 91 % 1002,7 hPa 0,0 l/m 0 min 2 min 0 W/m 31,4 km/h (5 Bft)
21.10.2014 18:46 9,2 C 7,2 C 91 % 1002,8 hPa 0,0 l/m 0 min 2 min 0 W/m 31,4 km/h (5 Bft)
21.10.2014 18:48 9,2 C 7,2 C 91 % 1002,8 hPa 0,0 l/m 0 min 2 min 0 W/m 31,4 km/h (5 Bft)
21.10.2014 18:50 9,1 C 7,2 C 91 % 1003,0 hPa 0,0 l/m 0 min 2 min 0 W/m 25,1 km/h (4 Bft)
21.10.2014 18:52 9,1 C 7,2 C 91 % 1002,9 hPa 0,0 l/m 0 min 0 min 0 W/m 20,9 km/h (4 Bft)
21.10.2014 18:54 9,0 C 7,2 C 92 % 1003,0 hPa 0,0 l/m 0 min 0 min 0 W/m 18,8 km/h (3 Bft)
21.10.2014 18:56 8,9 C 7,2 C 91 % 1003,0 hPa 0,0 l/m 0 min 0 min 0 W/m 16,7 km/h (3 Bft)
21.10.2014 18:58 8,9 C 7,2 C 92 % 1003,0 hPa 0,0 l/m 0 min 0 min 0 W/m 18,8 km/h (3 Bft)
21.10.2014 19:00 8,8 C 7,2 C 92 % 1003,0 hPa 0,0 l/m 0 min 0 min 0 W/m 20,9 km/h (4 Bft)
21.10.2014 19:02 8,8 C 7,2 C 92 % 1003,1 hPa 0,0 l/m 0 min 0 min 0 W/m 16,7 km/h (3 Bft)
21.10.2014 19:04 8,7 C 7,2 C 92 % 1003,1 hPa 0,0 l/m 0 min 0 min 0 W/m 25,1 km/h (4 Bft)
21.10.2014 19:06 8,7 C 7,2 C 92 % 1003,3 hPa 0,0 l/m 0 min 2 min 0 W/m 25,1 km/h (4 Bft)
21.10.2014 19:08 8,6 C 7,2 C 92 % 1003,2 hPa 0,2 l/m 0 min 2 min 0 W/m 27,2 km/h (4 Bft)
21.10.2014 19:10 8,6 C 7,2 C 92 % 1003,3 hPa 0,0 l/m 0 min 2 min 0 W/m 35,6 km/h (5 Bft)
21.10.2014 19:12 8,6 C 7,2 C 92 % 1003,4 hPa 0,0 l/m 0 min 0 min 0 W/m 29,3 km/h (5 Bft)
21.10.2014 19:14 8,5 C 7,2 C 92 % 1003,5 hPa 0,0 l/m 0 min 0 min 0 W/m 31,4 km/h (5 Bft)
21.10.2014 19:16 8,5 C 7,2 C 92 % 1003,5 hPa 0,0 l/m 0 min 0 min 0 W/m 27,2 km/h (4 Bft)
21.10.2014 19:18 8,5 C 7,2 C 92 % 1003,6 hPa 0,0 l/m 0 min 0 min 0 W/m 29,3 km/h (5 Bft)
21.10.2014 19:20 8,5 C 7,2 C 92 % 1003,7 hPa 0,0 l/m 0 min 0 min 0 W/m 31,4 km/h (5 Bft)
21.10.2014 19:22 8,4 C 7,2 C 92 % 1003,7 hPa 0,0 l/m 0 min 0 min 0 W/m 20,9 km/h (4 Bft)
21.10.2014 19:24 8,5 C 7,2 C 92 % 1003,8 hPa 0,0 l/m 0 min 0 min 0 W/m 27,2 km/h (4 Bft)
21.10.2014 19:26 8,5 C 7,2 C 92 % 1003,8 hPa 0,0 l/m 0 min 0 min 0 W/m 29,3 km/h (5 Bft)
21.10.2014 19:28 8,5 C 7,2 C 92 % 1003,9 hPa 0,0 l/m 0 min 0 min 0 W/m 23,0 km/h (4 Bft)
21.10.2014 19:30 8,5 C 7,2 C 92 % 1003,8 hPa 0,0 l/m 0 min 0 min 0 W/m 18,8 km/h (3 Bft)
21.10.2014 19:32 8,5 C 7,2 C 92 % 1003,9 hPa 0,0 l/m 0 min 0 min 0 W/m 23,0 km/h (4 Bft)
21.10.2014 19:34 8,6 C 7,2 C 92 % 1003,9 hPa 0,0 l/m 0 min 0 min 0 W/m 20,9 km/h (4 Bft)
21.10.2014 19:36 8,6 C 7,2 C 92 % 1004,0 hPa 0,0 l/m 0 min 0 min 0 W/m 18,8 km/h (3 Bft)
21.10.2014 19:38 8,6 C 7,2 C 92 % 1003,9 hPa 0,0 l/m 0 min 0 min 0 W/m 25,1 km/h (4 Bft)
21.10.2014 19:40 8,6 C 7,2 C 92 % 1004,0 hPa 0,0 l/m 0 min 0 min 0 W/m 27,2 km/h (4 Bft)
21.10.2014 19:42 8,6 C 7,2 C 92 % 1004,0 hPa 0,0 l/m 0 min 0 min 0 W/m 16,7 km/h (3 Bft)
21.10.2014 19:44 8,6 C 7,2 C 92 % 1004,0 hPa 0,0 l/m 0 min 0 min 0 W/m 18,8 km/h (3 Bft)
21.10.2014 19:46 8,6 C 7,2 C 92 % 1004,0 hPa 0,0 l/m 0 min 0 min 0 W/m 18,8 km/h (3 Bft)
21.10.2014 19:48 8,6 C 7,2 C 92 % 1004,1 hPa 0,0 l/m 0 min 0 min 0 W/m 23,0 km/h (4 Bft)
21.10.2014 19:50 8,6 C 7,2 C 92 % 1004,2 hPa 0,0 l/m 0 min 0 min 0 W/m 18,8 km/h (3 Bft)
21.10.2014 19:52 8,6 C 7,2 C 92 % 1004,2 hPa 0,0 l/m 0 min 0 min 0 W/m 23,0 km/h (4 Bft)
21.10.2014 19:54 8,6 C 7,2 C 92 % 1004,2 hPa 0,0 l/m 0 min 0 min 0 W/m 23,0 km/h (4 Bft)
21.10.2014 19:56 8,6 C 7,2 C 92 % 1004,4 hPa 0,0 l/m 0 min 2 min 0 W/m 25,1 km/h (4 Bft)
21.10.2014 19:58 8,6 C 7,2 C 92 % 1004,4 hPa 0,2 l/m 0 min 2 min 0 W/m 23,0 km/h (4 Bft)
21.10.2014 20:00 8,7 C 7,2 C 92 % 1004,5 hPa 0,0 l/m 0 min 2 min 0 W/m 29,3 km/h (5 Bft)
21.10.2014 20:02 8,7 C 7,2 C 92 % 1004,7 hPa 0,0 l/m 0 min 2 min 0 W/m 23,0 km/h (4 Bft)
21.10.2014 20:04 8,7 C 7,2 C 92 % 1004,8 hPa 0,0 l/m 0 min 2 min 0 W/m 39,7 km/h (6 Bft)
21.10.2014 20:06 8,7 C 7,2 C 92 % 1004,7 hPa 0,0 l/m 0 min 2 min 0 W/m 33,5 km/h (5 Bft)
21.10.2014 20:08 8,7 C 7,2 C 92 % 1004,7 hPa 0,0 l/m 0 min 2 min 0 W/m 33,5 km/h (5 Bft)
21.10.2014 20:10 8,7 C 7,2 C 92 % 1004,7 hPa 0,0 l/m 0 min 2 min 0 W/m 20,9 km/h (4 Bft)
21.10.2014 20:12 8,7 C 7,2 C 92 % 1004,8 hPa 0,0 l/m 0 min 2 min 0 W/m 16,7 km/h (3 Bft)
21.10.2014 20:14 8,7 C 7,2 C 92 % 1004,8 hPa 0,0 l/m 0 min 2 min 0 W/m 31,4 km/h (5 Bft)
21.10.2014 20:16 8,7 C 7,2 C 92 % 1004,8 hPa 0,0 l/m 0 min 2 min 0 W/m 20,9 km/h (4 Bft)
21.10.2014 20:18 8,7 C 7,2 C 92 % 1004,8 hPa 0,0 l/m 0 min 2 min 0 W/m 20,9 km/h (4 Bft)
21.10.2014 20:20 8,7 C 7,2 C 92 % 1004,8 hPa 0,0 l/m 0 min 2 min 0 W/m 20,9 km/h (4 Bft)
21.10.2014 20:22 8,6 C 7,2 C 92 % 1004,7 hPa 0,0 l/m 0 min 0 min 0 W/m 20,9 km/h (4 Bft)
21.10.2014 20:24 8,6 C 7,2 C 93 % 1004,8 hPa 0,0 l/m 0 min 0 min 0 W/m 14,6 km/h (3 Bft)
21.10.2014 20:26 8,6 C 7,2 C 93 % 1004,8 hPa 0,0 l/m 0 min 0 min 0 W/m 20,9 km/h (4 Bft)
21.10.2014 20:28 8,6 C 7,2 C 93 % 1004,7 hPa 0,0 l/m 0 min 0 min 0 W/m 16,7 km/h (3 Bft)
21.10.2014 20:30 8,6 C 6,7 C 93 % 1004,7 hPa 0,0 l/m 0 min 0 min 0 W/m 16,7 km/h (3 Bft)
21.10.2014 20:32 8,6 C 6,7 C 93 % 1004,8 hPa 0,0 l/m 0 min 0 min 0 W/m 27,2 km/h (4 Bft)
21.10.2014 20:34 8,6 C 6,7 C 93 % 1004,7 hPa 0,0 l/m 0 min 0 min 0 W/m 25,1 km/h (4 Bft)
21.10.2014 20:36 8,5 C 6,7 C 93 % 1004,8 hPa 0,0 l/m 0 min 0 min 0 W/m 25,1 km/h (4 Bft)
21.10.2014 20:38 8,5 C 7,2 C 93 % 1004,8 hPa 0,0 l/m 0 min 0 min 0 W/m 29,3 km/h (5 Bft)
21.10.2014 20:40 8,4 C 7,2 C 93 % 1004,8 hPa 0,0 l/m 0 min 0 min 0 W/m 31,4 km/h (5 Bft)
21.10.2014 20:42 8,4 C 6,7 C 93 % 1004,8 hPa 0,0 l/m 0 min 0 min 0 W/m 25,1 km/h (4 Bft)
21.10.2014 20:44 8,4 C 6,7 C 93 % 1004,8 hPa 0,0 l/m 0 min 0 min 0 W/m 31,4 km/h (5 Bft)
21.10.2014 20:46 8,4 C 7,2 C 93 % 1004,9 hPa 0,0 l/m 0 min 0 min 0 W/m 27,2 km/h (4 Bft)
21.10.2014 20:48 8,4 C 7,2 C 93 % 1004,9 hPa 0,0 l/m 0 min 0 min 0 W/m 23,0 km/h (4 Bft)
21.10.2014 20:50 8,4 C 7,2 C 93 % 1005,0 hPa 0,0 l/m 0 min 0 min 0 W/m 29,3 km/h (5 Bft)
21.10.2014 20:52 8,4 C 7,2 C 93 % 1004,9 hPa 0,0 l/m 0 min 0 min 0 W/m 27,2 km/h (4 Bft)
21.10.2014 20:54 8,4 C 7,2 C 93 % 1005,0 hPa 0,0 l/m 0 min 0 min 0 W/m 25,1 km/h (4 Bft)
21.10.2014 20:56 8,4 C 7,2 C 93 % 1005,0 hPa 0,0 l/m 0 min 0 min 0 W/m 27,2 km/h (4 Bft)
21.10.2014 20:58 8,4 C 7,2 C 93 % 1004,9 hPa 0,0 l/m 0 min 0 min 0 W/m 31,4 km/h (5 Bft)
21.10.2014 21:00 8,4 C 7,2 C 93 % 1005,0 hPa 0,0 l/m 0 min 2 min 0 W/m 29,3 km/h (5 Bft)
21.10.2014 21:02 8,4 C 7,2 C 92 % 1004,9 hPa 0,0 l/m 0 min 2 min 0 W/m 31,4 km/h (5 Bft)
21.10.2014 21:04 8,4 C 7,2 C 92 % 1005,1 hPa 0,2 l/m 0 min 2 min 0 W/m 29,3 km/h (5 Bft)
21.10.2014 21:06 8,4 C 7,2 C 92 % 1005,1 hPa 0,0 l/m 0 min 2 min 0 W/m 37,7 km/h (5 Bft)
21.10.2014 21:08 8,4 C 7,2 C 92 % 1005,1 hPa 0,0 l/m 0 min 2 min 0 W/m 29,3 km/h (5 Bft)
21.10.2014 21:10 8,4 C 6,7 C 92 % 1005,0 hPa 0,0 l/m 0 min 2 min 0 W/m 31,4 km/h (5 Bft)
21.10.2014 21:12 8,4 C 6,7 C 92 % 1005,0 hPa 0,0 l/m 0 min 2 min 0 W/m 29,3 km/h (5 Bft)
21.10.2014 21:14 8,4 C 6,7 C 92 % 1005,1 hPa 0,0 l/m 0 min 2 min 0 W/m 27,2 km/h (4 Bft)
21.10.2014 21:16 8,4 C 6,7 C 91 % 1005,2 hPa 0,0 l/m 0 min 2 min 0 W/m 27,2 km/h (4 Bft)
21.10.2014 21:18 8,4 C 6,7 C 91 % 1005,1 hPa 0,0 l/m 0 min 2 min 0 W/m 29,3 km/h (5 Bft)
21.10.2014 21:20 8,4 C 6,7 C 91 % 1005,2 hPa 0,0 l/m 0 min 2 min 0 W/m 23,0 km/h (4 Bft)
21.10.2014 21:22 8,4 C 6,7 C 91 % 1005,2 hPa 0,0 l/m 0 min 2 min 0 W/m 31,4 km/h (5 Bft)
21.10.2014 21:24 8,4 C 6,7 C 91 % 1005,3 hPa 0,0 l/m 0 min 2 min 0 W/m 23,0 km/h (4 Bft)
21.10.2014 21:26 8,3 C 6,7 C 91 % 1005,3 hPa 0,0 l/m 0 min 2 min 0 W/m 37,7 km/h (5 Bft)
21.10.2014 21:28 8,3 C 6,7 C 91 % 1005,3 hPa 0,0 l/m 0 min 2 min 0 W/m 35,6 km/h (5 Bft)
21.10.2014 21:30 8,3 C 6,7 C 90 % 1005,4 hPa 0,0 l/m 0 min 2 min 0 W/m 27,2 km/h (4 Bft)
21.10.2014 21:32 8,3 C 6,7 C 90 % 1005,6 hPa 0,0 l/m 0 min 2 min 0 W/m 18,8 km/h (3 Bft)
21.10.2014 21:34 8,3 C 6,7 C 90 % 1006,2 hPa 0,2 l/m 0 min 2 min 0 W/m 23,0 km/h (4 Bft)
21.10.2014 21:36 8,3 C 6,7 C 90 % 1006,3 hPa 0,6 l/m 0 min 2 min 0 W/m 29,3 km/h (5 Bft)
21.10.2014 21:38 8,3 C 6,1 C 91 % 1006,4 hPa 0,4 l/m 0 min 2 min 0 W/m 25,1 km/h (4 Bft)
21.10.2014 21:40 8,3 C 6,1 C 91 % 1006,3 hPa 0,4 l/m 0 min 2 min 0 W/m 14,6 km/h (3 Bft)
21.10.2014 21:42 8,2 C 6,1 C 91 % 1006,3 hPa 0,2 l/m 0 min 2 min 0 W/m 23,0 km/h (4 Bft)
21.10.2014 21:44 8,2 C 6,1 C 91 % 1006,5 hPa 0,0 l/m 0 min 2 min 0 W/m 20,9 km/h (4 Bft)
21.10.2014 21:46 8,1 C 6,1 C 91 % 1006,4 hPa 0,2 l/m 0 min 2 min 0 W/m 23,0 km/h (4 Bft)
21.10.2014 21:48 8,1 C 6,1 C 91 % 1006,4 hPa 0,0 l/m 0 min 2 min 0 W/m 27,2 km/h (4 Bft)
21.10.2014 21:50 7,9 C 6,1 C 91 % 1006,4 hPa 0,2 l/m 0 min 2 min 0 W/m 29,3 km/h (5 Bft)
21.10.2014 21:52 7,9 C 6,1 C 91 % 1006,5 hPa 0,0 l/m 0 min 2 min 0 W/m 16,7 km/h (3 Bft)
21.10.2014 21:54 7,8 C 6,1 C 91 % 1006,4 hPa 0,0 l/m 0 min 2 min 0 W/m 25,1 km/h (4 Bft)
21.10.2014 21:56 7,8 C 6,1 C 91 % 1006,5 hPa 0,0 l/m 0 min 2 min 0 W/m 20,9 km/h (4 Bft)
21.10.2014 21:58 7,8 C 6,1 C 92 % 1006,6 hPa 0,0 l/m 0 min 2 min 0 W/m 23,0 km/h (4 Bft)
21.10.2014 22:00 7,8 C 6,1 C 92 % 1006,5 hPa 0,0 l/m 0 min 2 min 0 W/m 20,9 km/h (4 Bft)
21.10.2014 22:02 7,8 C 6,7 C 92 % 1006,6 hPa 0,0 l/m 0 min 2 min 0 W/m 31,4 km/h (5 Bft)
21.10.2014 22:04 7,8 C 6,7 C 92 % 1006,6 hPa 0,0 l/m 0 min 2 min 0 W/m 14,6 km/h (3 Bft)
21.10.2014 22:06 7,8 C 6,7 C 92 % 1006,6 hPa 0,0 l/m 0 min 2 min 0 W/m 16,7 km/h (3 Bft)
21.10.2014 22:08 7,8 C 6,1 C 93 % 1006,7 hPa 0,0 l/m 0 min 2 min 0 W/m 12,6 km/h (3 Bft)
21.10.2014 22:10 7,8 C 6,7 C 93 % 1006,7 hPa 0,0 l/m 0 min 2 min 0 W/m 14,6 km/h (3 Bft)
21.10.2014 22:12 7,7 C 6,7 C 93 % 1006,8 hPa 0,0 l/m 0 min 2 min 0 W/m 16,7 km/h (3 Bft)
21.10.2014 22:14 7,7 C 6,7 C 93 % 1006,9 hPa 0,2 l/m 0 min 2 min 0 W/m 10,5 km/h (2 Bft)
21.10.2014 22:16 7,7 C 6,7 C 93 % 1006,8 hPa 0,0 l/m 0 min 2 min 0 W/m 12,6 km/h (3 Bft)
21.10.2014 22:18 7,7 C 6,7 C 93 % 1006,9 hPa 0,0 l/m 0 min 2 min 0 W/m 14,6 km/h (3 Bft)
21.10.2014 22:20 7,7 C 6,7 C 93 % 1007,0 hPa 0,0 l/m 0 min 2 min 0 W/m 18,8 km/h (3 Bft)
21.10.2014 22:22 7,7 C 6,7 C 93 % 1007,0 hPa 0,0 l/m 0 min 2 min 0 W/m 18,8 km/h (3 Bft)
21.10.2014 22:24 7,7 C 6,7 C 93 % 1007,0 hPa 0,0 l/m 0 min 2 min 0 W/m 20,9 km/h (4 Bft)
21.10.2014 22:26 7,7 C 6,7 C 93 % 1007,0 hPa 0,0 l/m 0 min 2 min 0 W/m 20,9 km/h (4 Bft)
21.10.2014 22:28 7,7 C 6,7 C 93 % 1007,0 hPa 0,0 l/m 0 min 2 min 0 W/m 23,0 km/h (4 Bft)
21.10.2014 22:30 7,7 C 6,7 C 94 % 1007,1 hPa 0,0 l/m 0 min 2 min 0 W/m 16,7 km/h (3 Bft)
21.10.2014 22:32 7,8 C 6,7 C 94 % 1007,1 hPa 0,0 l/m 0 min 2 min 0 W/m 20,9 km/h (4 Bft)
21.10.2014 22:34 7,7 C 6,7 C 94 % 1007,1 hPa 0,0 l/m 0 min 2 min 0 W/m 18,8 km/h (3 Bft)
21.10.2014 22:36 7,8 C 6,7 C 94 % 1007,3 hPa 0,0 l/m 0 min 2 min 0 W/m 16,7 km/h (3 Bft)
21.10.2014 22:38 7,8 C 6,7 C 94 % 1007,8 hPa 0,0 l/m 0 min 2 min 0 W/m 18,8 km/h (3 Bft)
21.10.2014 22:40 7,8 C 6,7 C 94 % 1007,9 hPa 0,0 l/m 0 min 2 min 0 W/m 23,0 km/h (4 Bft)
21.10.2014 22:42 7,8 C 6,7 C 94 % 1008,0 hPa 0,0 l/m 0 min 2 min 0 W/m 27,2 km/h (4 Bft)
21.10.2014 22:44 7,7 C 5,6 C 94 % 1008,4 hPa 0,2 l/m 0 min 2 min 0 W/m 39,7 km/h (6 Bft)
21.10.2014 22:46 7,5 C 4,4 C 94 % 1008,3 hPa 0,6 l/m 0 min 2 min 0 W/m 33,5 km/h (5 Bft)
21.10.2014 22:48 7,3 C 4,4 C 93 % 1008,4 hPa 0,2 l/m 0 min 2 min 0 W/m 37,7 km/h (5 Bft)
21.10.2014 22:50 7,2 C 4,4 C 93 % 1008,3 hPa 0,4 l/m 0 min 2 min 0 W/m 29,3 km/h (5 Bft)
21.10.2014 22:52 7,1 C 4,4 C 93 % 1008,4 hPa 0,0 l/m 0 min 2 min 0 W/m 20,9 km/h (4 Bft)
21.10.2014 22:54 7,0 C 5,0 C 93 % 1008,6 hPa 0,2 l/m 0 min 2 min 0 W/m 20,9 km/h (4 Bft)
21.10.2014 22:56 6,9 C 5,0 C 93 % 1008,5 hPa 0,0 l/m 0 min 2 min 0 W/m 23,0 km/h (4 Bft)
21.10.2014 22:58 6,9 C 5,0 C 93 % 1008,5 hPa 0,2 l/m 0 min 2 min 0 W/m 23,0 km/h (4 Bft)
21.10.2014 23:00 6,8 C 5,0 C 93 % 1008,5 hPa 0,0 l/m 0 min 0 min 0 W/m 18,8 km/h (3 Bft)
21.10.2014 23:02 6,8 C 5,0 C 93 % 1008,4 hPa 0,0 l/m 0 min 0 min 0 W/m 12,6 km/h (3 Bft)
21.10.2014 23:04 6,8 C 5,0 C 93 % 1008,5 hPa 0,0 l/m 0 min 0 min 0 W/m 10,5 km/h (2 Bft)
21.10.2014 23:06 6,7 C 5,0 C 93 % 1008,5 hPa 0,0 l/m 0 min 0 min 0 W/m 27,2 km/h (4 Bft)
21.10.2014 23:08 6,7 C 5,0 C 93 % 1008,5 hPa 0,0 l/m 0 min 0 min 0 W/m 18,8 km/h (3 Bft)
21.10.2014 23:10 6,7 C 5,6 C 93 % 1008,6 hPa 0,0 l/m 0 min 0 min 0 W/m 16,7 km/h (3 Bft)
21.10.2014 23:12 6,7 C 5,6 C 93 % 1008,6 hPa 0,2 l/m 0 min 0 min 0 W/m 16,7 km/h (3 Bft)
21.10.2014 23:14 6,7 C 5,6 C 93 % 1008,5 hPa 0,0 l/m 0 min 0 min 0 W/m 16,7 km/h (3 Bft)
21.10.2014 23:16 6,7 C 5,6 C 93 % 1008,5 hPa 0,0 l/m 0 min 0 min 0 W/m 14,6 km/h (3 Bft)
21.10.2014 23:18 6,7 C 5,6 C 94 % 1008,5 hPa 0,0 l/m 0 min 0 min 0 W/m 14,6 km/h (3 Bft)
21.10.2014 23:20 6,6 C 5,6 C 94 % 1008,6 hPa 0,0 l/m 0 min 0 min 0 W/m 14,6 km/h (3 Bft)
21.10.2014 23:22 6,7 C 5,6 C 94 % 1008,6 hPa 0,0 l/m 0 min 0 min 0 W/m 10,5 km/h (2 Bft)
21.10.2014 23:24 6,6 C 5,6 C 94 % 1008,6 hPa 0,0 l/m 0 min 0 min 0 W/m 12,6 km/h (3 Bft)
21.10.2014 23:26 6,6 C 5,6 C 94 % 1008,6 hPa 0,0 l/m 0 min 0 min 0 W/m 12,6 km/h (3 Bft)
21.10.2014 23:28 6,6 C 5,6 C 94 % 1008,6 hPa 0,0 l/m 0 min 0 min 0 W/m 10,5 km/h (2 Bft)
21.10.2014 23:30 6,6 C 5,6 C 94 % 1008,7 hPa 0,0 l/m 0 min 0 min 0 W/m 12,6 km/h (3 Bft)
21.10.2014 23:32 6,6 C 5,6 C 94 % 1008,7 hPa 0,0 l/m 0 min 0 min 0 W/m 8,4 km/h (2 Bft)
21.10.2014 23:34 6,6 C 5,6 C 94 % 1008,8 hPa 0,0 l/m 0 min 0 min 0 W/m 14,6 km/h (3 Bft)
21.10.2014 23:36 6,6 C 5,6 C 94 % 1008,5 hPa 0,2 l/m 0 min 0 min 0 W/m 10,5 km/h (2 Bft)
21.10.2014 23:38 6,7 C 5,6 C 94 % 1008,5 hPa 0,0 l/m 0 min 0 min 0 W/m 14,6 km/h (3 Bft)
21.10.2014 23:40 6,7 C 5,6 C 94 % 1008,6 hPa 0,0 l/m 0 min 0 min 0 W/m 16,7 km/h (3 Bft)
21.10.2014 23:42 6,7 C 5,6 C 94 % 1008,6 hPa 0,0 l/m 0 min 0 min 0 W/m 18,8 km/h (3 Bft)
21.10.2014 23:44 6,7 C 6,1 C 95 % 1008,7 hPa 0,0 l/m 0 min 0 min 0 W/m 14,6 km/h (3 Bft)
21.10.2014 23:46 6,7 C 6,1 C 95 % 1008,8 hPa 0,0 l/m 0 min 0 min 0 W/m 12,6 km/h (3 Bft)
21.10.2014 23:48 6,7 C 6,1 C 94 % 1009,0 hPa 0,0 l/m 0 min 0 min 0 W/m 8,4 km/h (2 Bft)
21.10.2014 23:50 6,7 C 5,6 C 95 % 1009,1 hPa 0,0 l/m 0 min 0 min 0 W/m 10,5 km/h (2 Bft)
21.10.2014 23:52 6,7 C 5,6 C 95 % 1009,1 hPa 0,0 l/m 0 min 0 min 0 W/m 8,4 km/h (2 Bft)
21.10.2014 23:54 6,7 C 5,6 C 95 % 1009,3 hPa 0,0 l/m 0 min 0 min 0 W/m 8,4 km/h (2 Bft)
21.10.2014 23:56 6,7 C 5,6 C 95 % 1009,4 hPa 0,0 l/m 0 min 0 min 0 W/m 8,4 km/h (2 Bft)
21.10.2014 23:58 6,7 C 5,6 C 95 % 1009,5 hPa 0,0 l/m 0 min 0 min 0 W/m 8,4 km/h (2 Bft)
_ Min-Zeit 23:20 22:46 11:54 15:46 - - - - 23:32
Minimum _ 6,6 C 4,4 C 82 % 998,4 hPa - - - - 8,4 km/h (2 Bft)
_ Max-Zeit 11:48 11:22 06:00 00:00 18:30 10:00 04:42 10:12 18:30
Maximum _ 13,9 C 12,8 C 96 % 1013,6 hPa 0,8 l/m 2 min 2 min 370 W/m 66,9 km/h
NW (8 Bft)
Durchschnitt _ 11,1 C 9,7 C 93 % 1006,5 hPa #12,0 l/m #1:06 h #6:43 h 67 W/m 23,6 km/h (4 Bft)
© 2014 W. Hausmann